GEFSSGP_500_meanwind_108.txt.gz
Wind_Speed
3 2 3 2 2 3 2 2 2 2 2 2 2 2 1 1 1 3 4 5 5 6 7 8 9 9 10 11 11 12 13 13 14 14 14 15 15 16 16 16 17 18 18 18 18 19 19 19 19
1 1 1 1 2 2 2 1 1 2 2 2 1 1 1 1 1 2 3 4 4 5 7 7 8 9 9 10 11 11 12 13 14 14 15 15 16 16 16 17 17 17 17 18 18 18 19 19 19
1 1 1 1 1 1 1 1 0 1 1 1 0 0 0 1 2 3 4 4 4 5 6 7 8 8 9 10 11 11 12 13 14 14 15 15 16 16 16 17 17 17 18 18 18 18 19 19 19
2 3 3 3 2 2 2 2 1 1 1 2 2 1 1 2 3 3 4 5 5 5 6 7 8 8 9 10 11 12 13 13 14 14 15 15 16 16 17 17 17 18 18 18 19 19 19 19 19
5 5 5 4 4 4 4 4 4 3 3 3 3 2 3 4 4 5 5 6 7 7 7 8 9 9 10 11 12 13 13 14 14 15 16 16 16 17 17 18 18 19 19 19 19 19 19 19 19
7 7 7 7 6 6 6 6 6 5 5 5 5 5 7 7 7 7 7 9 10 10 10 10 11 11 12 12 13 14 14 15 15 16 17 17 18 18 19 19 19 20 20 20 20 20 20 20 20
10 10 10 9 9 8 8 8 8 8 8 8 8 7 9 10 10 9 10 11 12 13 12 12 12 13 13 14 15 15 16 16 17 17 18 19 19 20 20 21 21 21 21 22 22 22 22 22 22
13 13 12 12 11 11 11 10 11 11 10 10 10 9 10 12 12 12 11 12 13 15 15 15 15 15 15 16 16 17 17 18 19 19 20 20 21 22 22 22 23 23 23 24 24 24 24 24 24
16 16 15 14 14 13 13 13 13 13 13 12 12 11 12 13 14 13 13 13 14 15 16 17 17 17 17 18 18 19 19 19 20 20 21 21 22 23 23 23 24 25 25 26 26 27 27 27 27
18 18 17 17 16 15 16 15 15 15 15 15 14 14 14 14 15 15 15 15 15 16 17 18 18 18 19 19 19 20 20 21 21 22 22 23 24 24 25 25 25 26 27 27 28 28 29 29 30
20 20 20 19 18 18 18 17 17 17 18 18 17 16 16 16 16 17 17 16 16 16 17 18 19 19 19 20 20 21 21 22 22 23 23 24 24 25 26 26 27 27 28 29 29 30 30 31 32
23 23 22 21 21 20 20 19 18 18 20 20 19 18 18 18 18 18 18 18 17 17 17 19 19 19 20 20 21 21 22 22 23 24 24 25 26 26 27 28 28 29 29 30 31 31 32 33 34
25 24 24 23 23 23 22 21 20 21 21 21 21 20 20 20 20 19 19 20 19 18 18 19 20 20 21 21 21 22 22 23 24 24 25 26 26 27 28 28 29 30 30 31 31 32 33 34 35
27 27 26 26 25 25 24 23 22 23 23 23 22 22 21 21 21 20 20 20 20 20 19 20 20 21 21 22 22 22 23 23 24 25 26 26 27 27 28 29 29 30 30 31 32 33 33 34 35
30 29 29 29 28 27 26 25 25 25 24 23 23 23 22 22 21 20 20 20 21 21 20 21 21 21 22 22 22 23 24 24 25 25 26 26 27 27 28 29 30 31 31 32 33 33 34 35 35
32 32 31 31 29 28 27 27 27 26 25 24 24 23 23 22 21 21 21 21 21 22 21 21 21 22 22 23 23 24 24 25 25 26 26 27 28 28 29 29 30 31 31 32 33 33 34 35 36
34 34 33 32 31 30 29 28 28 27 26 25 25 24 24 23 23 22 22 22 22 22 22 22 22 22 23 23 24 25 25 26 26 27 28 28 29 29 29 30 31 31 32 32 33 34 34 35 36
35 35 34 33 33 32 31 30 29 28 27 26 25 25 25 24 23 23 22 22 22 22 22 22 22 23 24 24 25 26 26 27 27 28 28 29 29 30 30 31 31 31 32 32 33 34 35 36 37
35 35 34 34 34 33 31 31 29 29 28 26 26 26 25 24 23 23 23 23 23 23 23 23 23 24 24 25 26 26 27 27 28 28 29 30 30 31 31 31 31 32 33 34 35 36 37 38 39
34 34 33 34 35 33 33 31 30 28 28 26 25 25 25 24 24 23 23 23 23 23 23 23 24 24 25 26 27 27 28 28 29 29 30 31 31 32 32 32 33 34 35 36 37 38 39 40 41
33 32 32 34 34 34 34 31 29 29 29 27 25 25 26 25 24 24 24 24 24 24 24 24 24 25 26 27 28 28 29 30 30 30 31 31 32 33 34 34 35 36 37 38 39 40 41 41 43
32 32 33 34 35 34 34 32 28 28 28 27 25 25 25 25 24 24 24 24 24 24 24 24 25 26 27 28 28 29 30 30 31 32 32 33 34 35 36 37 37 38 40 41 41 42 43 44 44
31 32 33 34 35 35 33 34 27 28 26 26 25 24 25 24 24 24 24 24 24 24 25 25 26 26 27 28 29 30 31 32 32 33 34 35 36 37 38 39 39 40 41 42 43 44 45 46 46
31 32 33 35 36 35 30 34 28 25 25 26 25 24 24 24 24 24 24 24 24 25 25 26 26 27 28 30 31 32 32 33 34 35 36 37 38 39 40 41 42 42 44 45 46 46 48 49 50
31 31 33 35 35 33 31 33 28 24 25 25 24 24 24 24 24 24 24 24 25 25 26 27 28 29 30 31 32 33 34 35 36 37 38 39 40 41 42 43 44 45 46 47 48 49 50 51 52
31 32 33 35 35 33 32 32 26 23 24 25 24 23 24 24 24 24 24 25 25 26 27 28 29 30 32 33 34 35 36 37 38 39 40 41 42 43 44 45 46 47 48 49 50 51 53 54 55
32 32 33 35 36 35 33 31 27 23 23 24 23 23 24 24 24 24 25 25 26 27 28 30 31 32 33 34 35 37 38 39 40 42 43 43 44 45 46 46 47 49 50 51 52 53 55 56 57
34 33 34 36 36 36 33 29 26 23 23 23 23 24 24 24 24 25 25 26 27 29 30 31 32 34 35 36 38 39 40 41 42 44 45 45 46 47 47 48 49 50 52 53 54 55 57 58 59
33 34 34 36 36 34 32 28 25 25 24 24 24 24 24 25 25 25 26 27 28 29 31 32 34 35 37 38 40 41 42 43 44 45 46 46 47 48 49 50 51 52 53 55 56 57 59 60 61
33 32 32 33 33 32 32 29 25 26 25 26 26 25 25 25 26 27 28 29 30 31 32 34 36 37 39 40 41 42 43 44 45 46 47 47 48 49 50 51 52 54 55 56 58 59 60 61 62

GEFSSGP_500_meanwind_114.txt.gz
Wind_Speed
4 4 4 5 5 4 4 3 2 0 1 2 3 3 2 3 3 4 5 6 6 7 8 9 9 10 10 11 12 12 12 12 13 13 13 14 14 15 15 16 16 16 17 17 18 18 19 19 20
3 3 3 4 4 4 3 3 3 2 1 1 2 3 3 3 3 3 4 5 6 7 8 9 10 10 10 11 12 12 13 13 13 14 14 14 15 15 16 16 17 17 18 18 19 19 20 20 20
2 2 3 3 2 2 2 3 3 2 2 2 2 3 4 4 4 4 5 5 6 7 8 9 10 11 11 11 12 13 13 14 14 14 14 15 15 16 16 17 17 18 19 19 20 20 21 21 21
2 2 2 2 2 2 2 2 3 2 2 2 3 4 4 4 5 5 5 6 6 7 8 9 10 10 11 11 12 12 13 14 14 15 15 16 16 17 17 18 18 19 19 20 20 21 22 22 22
4 4 3 3 3 3 3 3 3 4 4 4 4 5 6 6 6 6 6 7 7 8 9 10 10 11 11 12 13 13 14 14 15 15 16 17 17 18 18 19 19 20 20 21 21 22 23 23 24
7 6 5 5 5 5 4 5 5 6 6 6 6 7 8 8 9 9 9 9 10 10 11 11 12 13 13 14 15 15 15 16 16 17 17 18 19 19 20 20 21 22 22 22 23 23 23 24 24
10 9 8 7 7 7 7 7 7 8 8 8 8 9 10 11 11 12 12 12 13 13 13 13 14 15 15 16 16 17 17 18 18 19 19 20 20 21 21 22 23 23 24 24 24 25 25 25 26
13 12 11 10 10 10 10 10 10 10 10 10 10 10 11 12 13 14 14 14 15 15 15 16 16 16 17 17 17 18 19 19 20 20 21 21 22 22 23 24 24 25 25 26 26 26 27 27 28
16 16 14 14 13 12 12 12 12 12 12 12 12 12 12 13 14 15 16 16 17 17 17 17 18 18 18 18 18 19 19 20 21 21 22 23 23 24 24 25 26 26 27 27 27 28 28 29 29
19 18 18 17 16 15 15 15 15 14 15 14 14 14 14 15 16 17 17 18 18 18 18 18 18 19 19 19 20 20 20 21 22 22 23 23 24 25 25 26 26 27 27 28 28 29 29 30 30
22 21 21 20 19 18 18 17 17 17 17 17 17 16 16 16 17 18 18 19 20 20 20 20 20 20 20 20 20 20 21 21 22 23 23 24 24 25 26 26 27 28 28 29 29 30 30 30 31
25 24 24 23 22 21 21 20 19 19 20 20 19 19 19 19 20 20 20 20 21 21 22 21 21 21 21 21 21 21 21 22 22 23 24 24 25 26 26 27 28 29 29 30 30 31 31 32 32
27 27 26 25 25 24 24 23 22 21 22 22 21 22 22 22 22 22 22 22 22 23 23 23 22 22 22 22 22 22 23 23 23 24 24 25 26 27 27 28 29 29 30 31 31 32 32 33 33
30 29 29 28 28 27 26 25 24 24 25 24 24 24 24 24 24 24 24 24 24 24 24 24 24 23 24 24 24 24 24 24 24 24 25 26 26 27 28 29 29 30 31 31 32 32 33 33 34
33 32 31 31 31 30 29 27 28 27 27 27 27 26 26 26 26 26 26 26 25 26 26 25 25 25 25 25 25 25 25 25 25 25 26 27 27 28 29 29 30 31 32 32 33 33 34 34 35
34 34 33 33 33 33 32 30 31 30 29 29 29 28 28 28 28 27 27 27 27 27 27 27 26 26 26 26 26 26 26 26 26 27 27 28 28 29 30 31 32 32 33 33 34 34 34 35 35
35 35 34 35 35 35 35 32 32 33 32 31 30 30 29 29 29 29 29 29 29 29 29 28 28 28 27 27 27 27 27 27 27 28 28 29 29 30 31 32 32 33 33 34 34 35 35 36 36
35 36 35 35 37 38 37 34 34 35 34 33 32 31 31 31 31 31 31 30 30 30 30 29 29 29 29 29 29 28 28 28 29 29 29 30 30 31 32 32 33 34 34 35 35 36 36 37 37
36 36 35 35 37 38 37 35 34 36 35 34 33 33 33 33 33 33 32 32 31 31 30 30 30 29 29 29 29 29 29 29 30 30 30 31 32 32 33 33 34 35 35 36 36 37 37 38 39
36 36 35 35 37 39 37 35 33 35 36 35 34 34 34 34 33 33 33 33 32 31 31 31 30 30 30 30 30 30 30 30 31 31 31 32 33 33 34 34 35 36 37 37 38 38 39 40 41
35 35 35 36 37 39 39 34 30 33 35 34 34 34 35 34 34 34 33 33 32 32 32 31 31 31 30 30 31 31 31 32 32 32 33 33 34 34 35 36 37 37 38 39 40 40 41 41 42
34 34 36 36 37 38 39 37 28 31 33 33 34 34 34 35 35 34 34 34 33 33 32 32 32 31 31 31 31 32 32 32 33 33 34 35 35 36 36 37 38 39 40 40 41 42 42 43 44
34 35 36 37 38 38 36 39 30 29 31 32 34 34 34 35 35 34 34 33 32 32 32 32 32 32 32 32 32 32 33 33 34 34 35 36 36 37 38 39 40 40 41 42 43 44 44 45 46
35 36 37 38 38 38 34 37 33 28 30 31 33 33 34 34 34 33 32 32 32 32 32 32 32 32 32 32 33 33 34 34 35 35 36 37 37 38 40 41 41 42 43 44 45 46 46 47 48
36 36 37 38 38 37 34 35 33 29 28 30 31 32 32 32 32 31 31 31 32 32 32 32 33 33 33 33 34 35 35 36 36 37 37 38 39 40 41 42 43 44 45 46 46 47 48 48 49
35 36 37 38 38 36 35 34 30 28 27 28 29 30 30 31 30 30 30 31 32 32 32 33 33 33 34 34 35 36 36 36 37 38 38 39 40 41 42 43 44 45 46 47 47 48 48 49 50
35 36 36 38 39 38 36 33 29 27 27 28 28 28 29 30 29 29 30 31 31 32 32 33 33 34 35 35 36 36 37 37 38 39 39 40 41 42 44 45 46 46 47 47 48 49 50 51 52
35 35 36 37 38 38 36 32 29 26 27 27 28 29 30 30 30 30 30 31 31 31 32 33 34 35 35 36 36 37 38 39 39 40 41 42 43 44 45 46 47 47 48 49 49 50 51 53 54
35 35 35 36 38 37 36 32 29 27 27 27 28 29 30 30 30 30 30 31 32 32 33 34 34 35 36 37 38 39 39 40 41 42 43 44 45 46 47 47 48 49 49 50 51 52 53 54 55
36 35 35 36 36 36 37 33 29 29 28 29 29 30 30 30 31 31 31 31 32 32 33 34 35 36 37 38 39 40 41 41 43 44 45 46 47 48 48 49 49 50 51 52 53 54 54 55 56

GEFSSGP_500_meanwind_120.txt.gz
Wind_Speed
6 6 6 6 6 5 5 4 4 3 4 4 4 4 3 3 3 4 4 4 5 6 7 7 8 9 10 11 12 13 13 14 14 15 15 16 16 17 17 17 17 18 18 18 18 19 19 19 19
5 5 6 6 6 6 5 5 4 3 3 3 3 3 4 3 3 3 4 4 5 6 6 7 8 9 10 11 12 13 13 14 15 15 16 17 17 17 18 18 18 18 18 18 19 19 20 20 20
5 5 5 5 5 5 5 4 4 3 2 1 2 2 3 3 3 3 4 4 5 6 7 8 9 10 11 12 13 13 14 14 15 16 16 17 17 18 18 18 18 18 18 19 19 19 20 20 20
5 5 5 5 4 4 4 3 3 2 1 0 1 2 3 4 4 5 5 5 6 7 7 8 9 10 10 11 12 13 13 14 15 15 16 16 17 17 17 18 18 19 19 19 19 20 20 20 21
6 5 5 5 4 4 3 3 3 2 2 2 2 3 4 5 5 6 6 6 7 7 8 9 9 10 11 12 13 13 14 15 15 16 16 17 17 18 18 18 19 19 20 20 21 21 21 22 22
8 7 7 6 5 5 4 4 4 4 4 4 4 5 5 6 7 8 8 8 9 9 10 10 11 12 13 13 14 15 16 16 17 17 18 18 19 19 19 20 20 20 21 21 22 22 23 23 23
11 10 9 8 8 7 6 6 5 6 6 6 7 7 7 8 9 10 10 11 11 11 12 13 13 14 15 15 16 17 18 18 19 19 19 20 20 21 21 21 21 22 22 23 23 24 24 24 25
14 13 12 11 10 9 9 8 8 8 8 8 9 9 10 10 10 11 11 12 12 13 14 15 15 16 16 17 18 18 19 20 20 20 21 21 21 22 22 22 23 23 23 24 24 25 25 25 26
18 16 15 14 13 13 12 11 10 10 10 10 11 11 12 12 12 13 13 13 14 15 15 16 17 17 18 18 19 19 20 20 21 21 22 22 22 22 23 23 24 24 25 25 25 25 25 26 26
21 19 18 18 17 16 15 14 13 13 13 13 13 13 14 14 14 15 15 15 16 16 16 17 18 19 19 19 20 20 21 21 21 22 22 23 23 23 23 24 24 24 25 25 25 26 26 27 27
24 22 22 20 19 18 18 17 16 16 16 16 16 16 16 16 17 17 17 18 18 18 18 18 19 19 20 21 21 21 22 22 22 23 23 23 23 24 24 24 25 25 25 26 26 27 27 27 28
27 26 25 24 22 22 21 20 19 19 20 19 18 18 18 18 19 19 19 20 20 20 20 20 20 21 21 22 23 23 23 23 24 24 24 24 25 25 25 26 26 26 26 27 27 27 28 28 29
29 28 28 27 26 25 24 23 22 22 23 22 21 21 21 21 21 21 22 22 22 23 23 23 23 23 23 24 24 24 24 25 25 26 26 26 26 27 27 27 27 27 28 28 28 29 29 29 30
31 30 30 29 28 27 26 26 25 25 25 24 24 24 24 24 24 24 24 25 25 25 25 25 25 25 25 25 26 26 26 26 27 27 27 27 28 28 28 28 28 28 28 29 29 30 30 30 31
33 33 32 32 31 30 30 28 28 28 28 27 27 27 27 27 27 27 27 27 27 27 27 27 27 26 27 27 27 27 27 27 28 28 29 29 29 29 29 29 29 29 30 30 30 31 31 32 32
34 34 34 34 34 34 33 31 31 31 30 30 29 30 30 30 29 29 29 29 29 29 28 29 28 29 29 29 29 29 29 29 29 30 30 30 30 30 30 30 30 31 31 31 32 32 32 32 33
35 35 34 35 36 36 35 33 34 34 33 32 32 32 32 32 32 32 31 31 30 30 30 30 30 30 30 30 30 30 30 30 30 30 31 31 31 31 31 31 32 32 32 32 33 33 33 33 34
36 36 35 35 37 37 37 34 34 36 35 34 34 34 34 34 34 34 33 32 32 31 31 31 31 32 32 32 32 32 31 31 31 31 31 31 31 31 31 32 32 33 33 33 33 34 34 34 35
38 37 35 36 38 39 38 35 34 36 37 36 36 36 36 36 36 34 34 33 33 33 33 33 33 32 32 33 33 33 32 32 31 31 31 31 31 32 32 33 33 33 34 34 34 35 35 36 36
38 37 36 37 39 40 39 36 35 36 37 37 37 37 36 36 36 35 34 34 34 34 33 33 33 33 33 33 33 33 32 32 31 31 31 32 32 33 33 33 34 34 34 35 35 36 36 37 37
39 37 36 37 38 40 40 36 34 35 37 37 37 37 36 36 36 35 35 34 34 33 33 33 33 33 33 33 33 33 32 32 32 32 32 32 33 33 34 34 35 35 36 36 36 37 37 38 38
38 37 37 37 38 38 38 37 31 33 34 36 37 36 35 35 35 35 34 34 34 34 34 34 34 33 33 33 33 32 32 32 32 32 32 33 33 34 34 35 36 36 37 37 38 38 39 39 40
38 37 37 37 38 38 36 38 32 30 32 34 35 35 35 35 35 35 34 34 34 33 33 33 34 34 33 33 32 32 32 33 33 32 33 33 34 34 35 35 36 37 38 38 39 39 40 41 42
38 37 37 37 37 38 34 36 33 29 29 31 33 34 34 34 34 34 34 33 33 32 33 33 32 32 32 32 32 32 32 32 33 33 33 34 34 35 36 37 38 38 39 39 40 41 41 42 43
37 36 37 38 38 38 35 35 33 29 29 30 31 32 33 33 33 33 32 32 32 32 31 31 31 31 31 31 32 32 32 32 33 34 34 35 35 36 37 38 38 39 40 41 41 42 43 44 44
37 37 37 38 38 37 36 34 31 29 29 29 30 30 31 31 31 31 31 31 31 30 30 30 30 31 31 31 32 32 32 33 34 34 35 36 36 37 38 39 39 40 41 42 43 44 44 45 45
38 37 36 38 39 38 37 33 29 28 29 29 29 29 30 30 30 30 30 31 30 30 30 30 30 30 31 31 32 32 33 33 34 34 35 36 37 38 39 40 41 42 42 43 44 44 45 46 47
38 37 37 39 39 38 37 32 28 28 28 29 29 29 29 29 29 29 30 30 30 31 31 31 30 31 31 32 32 33 33 34 35 36 36 37 39 40 40 41 42 43 44 44 45 46 47 47 48
38 38 38 39 40 38 36 32 28 28 27 28 29 29 29 30 29 29 30 30 30 30 30 30 30 31 31 32 32 34 35 35 35 36 37 38 40 41 41 42 43 44 45 45 46 47 48 48 49
40 39 39 39 38 37 36 34 29 28 28 28 29 29 30 30 29 30 30 30 30 30 30 30 31 31 32 33 34 35 35 35 36 37 38 39 41 42 43 44 44 45 46 47 48 48 49 50 51

GEFSSGP_500_meanwind_126.txt.gz
Wind_Speed
5 6 7 7 7 7 7 6 6 6 6 6 5 6 6 5 4 4 4 4 5 5 6 7 7 7 8 8 9 10 10 11 11 12 12 13 13 14 15 15 16 16 16 17 17 17 17 18 18
6 7 7 8 8 8 7 6 6 6 6 5 5 6 5 4 4 4 4 4 5 5 5 6 6 7 7 8 9 9 10 11 11 12 12 13 14 14 15 15 16 16 17 17 18 18 18 18 19
8 8 8 8 8 8 7 7 7 6 5 5 6 6 5 4 4 5 5 5 5 5 6 6 7 7 8 8 9 10 11 11 12 12 13 13 14 15 15 15 16 16 17 17 18 18 18 19 20
9 9 9 8 8 7 7 7 7 6 6 6 6 6 5 5 5 5 5 6 6 7 7 8 8 8 9 10 10 11 11 12 12 13 14 14 15 15 16 16 16 17 18 18 19 19 20 20 21
12 11 11 10 9 8 8 7 7 7 7 6 6 6 5 6 6 6 6 6 7 7 8 9 9 10 10 11 11 12 12 13 13 14 15 15 16 16 17 18 18 19 19 20 20 21 21 22 22
14 13 13 12 11 10 9 9 8 8 8 8 7 7 6 7 7 7 8 8 8 8 9 10 10 11 12 12 13 13 13 14 15 15 16 17 18 18 19 19 20 20 21 21 22 22 23 23 24
16 16 15 14 13 12 11 10 10 10 10 9 9 8 7 8 8 9 9 10 10 10 11 12 12 13 13 14 14 14 15 15 16 17 18 18 19 19 20 21 21 22 22 23 23 24 24 25 26
19 18 18 17 16 15 13 13 12 12 12 11 11 10 7 10 10 10 11 12 12 13 13 14 15 15 15 16 16 16 17 17 18 19 19 19 20 20 21 22 22 23 23 24 25 25 26 27 27
23 21 20 20 19 18 16 15 15 14 14 13 13 12 11 12 12 13 13 14 14 15 15 16 16 16 17 17 18 18 18 19 19 20 20 20 21 22 22 23 23 24 24 25 25 26 26 27 28
26 24 23 22 22 20 19 18 17 17 16 16 15 14 14 14 14 15 15 16 16 16 17 17 18 18 18 19 20 20 20 20 20 21 21 22 22 23 23 24 24 25 25 26 27 27 27 28 28
29 27 26 25 24 23 22 21 20 20 19 19 18 17 17 17 17 17 17 18 18 18 19 19 19 20 20 21 21 21 22 22 22 22 23 23 23 23 24 25 25 26 27 27 28 28 28 29 29
32 31 30 28 27 26 25 24 23 22 22 22 21 20 19 19 20 20 20 20 20 21 21 22 22 22 22 23 23 23 23 24 24 24 24 24 25 25 25 26 27 27 28 28 29 29 29 30 31
35 33 32 31 30 29 28 27 26 25 25 24 23 23 22 22 22 23 23 23 23 23 24 25 25 25 25 25 25 25 25 26 26 26 26 26 26 27 27 27 28 29 30 30 30 30 31 31 32
37 36 35 34 32 31 31 30 29 27 28 27 26 26 25 25 25 25 25 26 26 26 27 27 28 28 28 28 28 28 28 28 28 28 28 28 29 29 29 29 30 30 31 31 31 31 32 32 33
39 38 37 36 35 34 34 32 31 30 30 29 29 28 28 28 28 28 28 28 29 29 29 30 30 30 30 30 29 29 30 30 30 30 30 30 30 30 30 31 31 32 32 32 33 33 33 33 33
40 39 38 38 38 37 36 33 33 33 32 31 31 31 31 31 31 31 30 31 31 31 32 32 32 32 32 32 31 31 31 31 31 32 32 32 32 32 32 32 32 32 33 33 33 33 34 34 34
41 39 38 39 39 38 38 35 35 35 34 34 34 34 34 33 33 34 33 33 33 34 34 34 34 34 33 33 33 33 32 32 32 33 33 33 33 32 33 33 33 33 33 33 34 34 34 34 34
39 39 39 40 41 40 39 37 36 37 37 36 36 36 36 35 35 35 35 35 35 35 35 35 35 35 34 34 35 34 34 34 34 34 34 34 33 33 33 34 34 34 34 34 34 35 34 34 34
41 41 41 40 41 42 40 38 37 38 39 37 37 37 37 37 37 36 36 36 36 36 36 36 36 36 36 35 36 36 36 35 35 34 34 33 33 34 34 34 33 33 34 35 35 35 35 35 35
43 42 41 41 42 43 42 40 38 38 39 38 37 37 38 38 37 37 36 36 36 36 36 36 36 36 36 36 36 36 36 35 34 34 33 34 34 34 34 33 34 34 34 34 35 35 36 36 36
43 42 41 41 42 43 43 41 38 38 38 38 38 39 39 38 38 38 37 37 37 36 37 36 36 36 37 36 36 36 35 35 34 34 34 34 34 33 33 33 34 35 35 35 36 36 36 36 36
42 40 40 41 42 42 43 43 37 37 37 38 39 39 38 38 38 38 37 37 37 37 37 37 36 36 36 36 36 35 35 35 35 35 34 34 33 34 34 35 35 35 36 36 36 37 37 37 37
42 41 42 42 43 43 42 44 38 35 36 37 37 38 37 37 37 37 37 36 37 36 36 36 36 36 36 36 35 35 34 34 34 34 33 34 34 34 35 35 35 36 36 36 37 37 37 37 38
42 42 43 43 44 45 40 42 41 35 35 35 36 36 36 36 36 36 36 35 35 35 35 35 35 35 35 35 35 34 34 34 33 33 33 34 34 34 35 35 35 35 36 37 37 37 38 38 39
44 43 43 43 44 44 40 42 41 36 34 34 35 34 34 34 34 34 34 34 33 33 34 34 34 34 34 34 34 34 34 34 33 33 33 33 34 34 34 35 35 36 37 37 37 38 39 40 40
44 44 43 42 42 41 41 41 39 35 33 33 33 33 33 33 33 33 33 33 33 33 33 33 33 33 33 33 34 34 34 34 33 33 34 34 34 34 34 35 36 37 37 38 39 40 40 41 41
45 44 41 42 42 42 42 41 38 34 33 32 32 32 33 33 33 33 33 33 33 32 32 32 33 33 33 33 34 34 34 34 34 34 34 34 34 34 35 35 36 37 38 39 40 41 41 42 42
46 43 42 43 43 43 42 40 39 36 33 32 32 32 32 32 32 32 32 32 32 32 32 32 32 33 33 33 33 33 34 34 34 34 34 35 35 35 36 36 37 38 39 41 41 42 42 42 43
45 45 44 44 44 43 42 40 37 36 34 32 31 31 31 31 31 31 31 31 31 31 31 32 32 32 32 32 33 34 34 34 34 34 35 35 36 36 36 37 38 40 41 42 43 43 43 44 45
45 44 44 44 44 42 42 40 37 36 35 32 32 31 31 30 30 30 30 31 31 31 31 31 32 32 32 33 33 34 34 34 34 35 35 36 36 37 38 39 40 41 42 43 44 44 44 45 46

GEFSSGP_500_meanwind_132.txt.gz
Wind_Speed
9 10 11 11 12 12 12 11 11 10 10 9 8 8 7 7 7 7 7 7 6 6 6 5 5 5 5 5 5 6 7 7 8 9 9 10 11 11 12 13 14 14 15 16 16 17 17 17 18
10 10 11 11 11 11 11 11 11 10 9 8 8 7 6 6 7 7 6 6 6 6 5 5 5 4 4 5 5 6 7 8 8 9 10 10 11 12 13 13 14 15 15 16 17 17 18 18 18
12 11 11 12 12 11 11 11 10 10 9 9 8 7 7 6 6 6 6 6 6 6 5 5 5 4 5 5 6 7 7 8 9 10 11 12 12 13 14 14 15 16 16 17 17 18 19 19 20
14 13 13 12 12 12 12 11 10 9 10 9 8 7 7 6 6 6 6 6 6 5 5 5 5 5 6 6 7 8 8 9 10 12 12 13 14 15 15 16 16 17 18 18 19 19 20 20 21
16 15 14 13 13 12 12 11 10 10 10 9 8 7 7 6 6 6 6 5 5 5 5 6 6 6 7 7 8 9 10 11 12 13 14 15 15 16 17 17 18 18 19 20 20 21 21 22 22
18 17 16 15 14 13 13 12 12 11 10 9 8 7 7 6 6 6 6 5 5 5 5 6 6 7 8 9 9 10 11 12 13 14 15 16 16 17 18 19 19 20 20 21 22 23 23 23 24
20 19 18 17 16 14 13 13 13 12 11 10 9 8 8 7 7 6 7 6 6 6 6 7 7 8 9 9 10 11 12 13 14 15 15 16 18 18 19 20 21 21 22 22 23 24 24 25 25
23 22 21 19 18 16 15 15 14 13 12 10 10 9 9 8 7 7 7 8 7 7 7 8 9 10 11 12 12 13 14 15 15 16 17 18 19 20 20 21 22 22 23 24 24 25 25 26 26
27 25 23 21 20 19 18 17 16 14 13 12 11 10 10 9 8 8 8 9 9 9 10 10 11 12 12 13 14 15 16 17 17 18 19 19 20 21 22 22 23 24 24 25 26 26 26 27 27
30 27 25 24 23 22 20 19 18 17 15 13 12 12 11 11 10 9 9 10 11 11 12 12 12 13 14 14 15 16 17 18 19 20 21 21 22 23 24 24 25 25 26 26 27 27 28 28 29
33 30 29 28 26 25 23 21 20 19 17 16 15 14 13 13 12 12 11 12 12 13 13 14 14 15 16 16 17 18 19 20 21 22 23 23 24 25 25 26 26 27 27 28 28 28 29 29 29
36 34 33 31 29 28 26 24 23 22 20 19 18 16 16 15 15 14 14 14 14 14 15 16 16 17 18 19 19 20 21 22 23 24 25 25 26 27 27 28 28 28 28 29 29 29 29 30 31
39 37 36 34 33 31 29 27 25 24 24 22 20 19 18 18 18 17 17 16 16 16 17 18 19 20 21 21 22 23 23 24 25 26 27 27 28 29 29 30 30 30 30 30 30 30 31 31 32
41 40 39 37 36 34 32 30 28 27 28 25 24 22 21 20 20 20 20 19 19 19 19 20 21 22 23 24 25 25 26 26 27 28 29 29 30 30 31 31 31 31 31 32 32 32 32 33 33
44 43 42 40 39 37 36 34 31 30 30 28 27 26 25 24 23 23 23 22 22 22 22 23 23 24 25 26 27 27 28 28 29 29 30 31 31 31 32 32 32 32 33 33 33 33 33 34 34
47 46 44 41 41 40 39 35 34 34 33 31 30 29 28 27 26 26 26 25 25 25 25 25 26 26 27 28 29 29 30 30 30 31 31 32 32 32 32 33 33 33 33 34 34 34 34 34 34
49 47 44 43 43 43 42 38 37 36 35 33 32 32 31 29 29 29 29 28 28 28 28 28 28 28 29 30 30 31 31 32 32 32 32 33 33 33 34 34 34 34 34 34 34 34 34 34 34
47 46 44 44 44 45 44 40 39 39 37 35 34 34 33 32 31 32 31 31 31 31 31 31 31 31 31 31 32 32 32 33 33 32 33 33 34 34 34 34 34 34 34 34 34 34 34 34 35
47 47 46 45 46 46 45 42 40 41 40 37 36 36 35 34 33 33 32 32 32 32 32 32 32 32 32 32 32 32 33 33 32 32 33 34 34 34 34 34 34 34 34 34 34 34 34 35 35
48 48 46 46 46 47 46 44 42 42 41 39 38 37 36 35 34 34 34 33 33 32 32 33 33 33 33 33 33 33 33 33 33 33 34 34 35 35 34 34 34 34 34 34 34 35 35 35 35
48 47 45 45 46 47 47 46 43 42 42 40 39 38 37 36 35 35 35 35 34 34 34 34 34 34 33 33 33 33 33 33 33 34 34 35 35 35 34 34 34 34 34 34 35 35 35 35 35
47 44 44 45 46 47 48 48 43 41 41 40 39 39 38 37 37 36 36 36 35 35 34 34 34 33 33 33 33 34 34 33 34 35 35 35 34 34 34 34 34 34 34 35 35 35 35 35 35
45 43 44 45 47 48 47 49 43 41 40 39 39 39 38 37 37 36 35 35 35 35 34 34 34 33 33 33 33 34 34 34 34 34 34 34 34 34 34 34 34 34 34 35 35 35 35 36 36
45 46 46 47 48 50 46 47 45 39 37 37 38 38 37 36 36 35 34 34 34 34 33 33 33 33 33 33 33 33 33 33 34 34 34 34 34 34 34 34 34 34 35 35 35 36 36 37 37
49 48 48 49 50 50 45 47 46 37 36 36 36 35 35 35 34 33 33 33 33 32 32 33 33 32 32 32 32 33 33 33 33 33 33 34 34 34 34 34 34 35 35 35 36 37 37 37 38
50 49 50 50 49 47 45 46 43 38 36 35 34 34 34 34 33 33 33 32 32 31 31 32 32 31 31 31 32 32 33 32 32 32 33 33 33 34 34 35 35 35 36 36 37 38 38 38 39
50 50 47 47 48 47 47 44 41 38 35 33 33 32 32 32 32 32 32 31 31 31 31 31 31 31 31 31 31 31 31 31 31 32 32 33 34 34 35 35 35 36 36 37 37 37 38 39 40
50 48 49 49 48 48 47 44 39 35 33 32 31 31 31 31 32 32 31 31 30 30 30 30 30 30 30 31 31 31 31 31 31 31 32 33 34 34 34 35 36 36 37 37 37 38 39 40 41
51 51 50 49 49 48 47 43 37 34 33 32 30 30 30 30 30 30 30 30 30 30 30 30 30 29 29 29 30 30 30 30 30 31 32 33 34 35 35 35 36 37 37 37 38 39 40 41 41
50 49 49 49 48 46 45 42 36 34 33 32 31 30 29 29 29 29 29 29 29 29 30 29 29 29 29 29 29 29 30 30 30 31 32 34 34 35 35 36 36 36 37 38 39 40 41 41 42

GEFSSGP_500_meanwind_138.txt.gz
Wind_Speed
15 15 16 17 17 17 17 16 16 15 14 14 13 13 12 12 12 11 11 11 10 10 9 8 8 7 7 6 6 6 6 6 6 7 7 7 8 9 10 11 12 12 13 14 14 15 15 16 17
16 15 16 16 16 15 16 16 16 15 14 14 13 12 12 11 11 11 10 10 10 9 9 8 7 7 6 6 6 6 6 6 7 7 7 8 9 10 11 12 13 14 14 15 16 16 16 17 18
17 17 16 16 15 15 15 16 16 15 14 13 12 11 11 10 10 10 10 10 9 9 8 8 7 7 6 6 6 6 7 7 7 8 8 9 10 11 13 14 14 15 15 16 16 17 18 18 19
19 18 17 16 15 15 16 16 15 15 14 13 13 11 10 10 10 10 10 10 9 9 8 8 8 7 7 7 7 7 7 8 8 9 10 11 12 13 14 15 16 16 16 17 17 18 19 20 20
22 20 19 17 16 16 17 16 15 15 14 14 13 12 11 10 10 9 9 10 9 9 9 8 8 7 7 7 8 8 8 8 9 10 11 12 13 14 15 16 16 17 18 18 19 20 20 21 22
24 23 20 18 18 18 17 17 16 15 15 14 14 13 12 11 10 10 9 9 9 9 9 8 8 8 8 8 8 9 9 10 10 11 12 13 14 15 15 16 17 18 19 20 21 21 22 23 23
26 25 23 21 20 19 18 18 17 16 15 15 14 13 12 11 11 10 10 9 9 9 8 8 8 9 9 9 9 10 10 11 12 13 14 14 15 16 16 17 18 19 20 21 22 23 24 24 25
29 28 25 23 21 21 20 19 18 18 17 16 15 14 13 12 12 11 11 10 9 9 9 9 9 9 9 10 10 11 11 12 13 14 15 16 16 17 18 19 20 21 22 23 24 25 25 26 27
33 31 28 25 24 23 22 21 20 19 18 17 16 16 15 13 12 12 11 11 10 10 10 10 10 10 10 11 11 12 13 14 15 15 16 17 18 19 20 20 21 22 23 24 25 26 27 27 28
36 33 29 27 27 26 25 24 22 21 20 19 17 17 16 15 14 13 13 13 12 12 12 12 12 12 12 12 13 14 15 15 16 16 17 18 19 20 21 22 23 24 25 26 27 27 28 28 29
39 35 32 31 30 29 28 26 25 23 22 20 20 19 18 17 16 15 14 14 14 13 13 13 13 13 13 14 15 15 16 17 17 18 19 20 22 23 23 24 25 26 27 28 29 29 29 30 31
41 38 36 34 33 32 30 29 27 25 23 23 22 21 20 18 17 17 16 15 15 15 14 14 14 15 15 16 16 17 18 18 19 20 21 22 23 24 25 26 27 28 29 29 30 31 31 32 32
44 41 39 38 37 35 33 31 29 27 25 24 23 22 21 20 19 18 17 17 16 16 16 16 16 17 17 17 18 19 19 20 21 22 23 24 25 26 27 28 29 29 30 31 31 32 32 33 33
47 45 43 42 40 38 36 34 32 29 28 27 25 24 23 22 21 20 19 18 18 18 17 18 18 18 19 19 20 21 21 22 23 24 25 26 27 28 28 29 30 30 31 32 32 33 33 34 34
50 48 47 45 43 40 39 38 34 31 31 30 28 26 24 24 23 21 21 20 20 19 19 19 20 20 21 22 22 23 23 24 25 26 27 28 29 30 30 30 31 31 32 33 33 34 34 35 35
53 52 50 47 45 44 43 39 35 35 34 32 30 29 27 26 25 24 23 22 22 22 22 22 22 22 23 24 24 25 25 26 27 28 29 29 30 31 31 32 32 32 33 33 34 34 34 35 35
56 55 51 48 47 47 47 41 38 38 37 35 33 31 30 28 27 26 25 25 24 24 24 24 24 25 26 26 26 26 27 28 29 30 30 30 31 31 32 32 32 33 34 34 34 35 35 36 36
56 54 52 49 48 48 48 44 41 41 40 38 36 34 32 30 29 29 28 27 27 27 27 27 27 27 28 27 27 28 28 29 30 31 31 31 31 32 32 33 33 34 34 34 35 35 36 36 36
54 54 52 50 50 51 50 48 44 44 44 41 38 37 35 33 32 32 31 30 29 29 29 29 29 29 29 29 29 29 30 31 31 32 32 32 32 33 33 34 34 34 34 35 36 36 36 36 36
55 55 54 52 52 53 53 51 48 47 46 43 41 39 37 36 35 34 33 32 31 31 30 30 30 30 30 30 31 31 31 31 31 32 32 33 33 33 34 34 34 34 34 35 36 36 36 36 36
57 55 53 53 52 53 55 55 51 48 47 45 43 41 39 38 37 36 35 34 33 32 32 31 31 32 32 32 33 32 32 32 32 32 33 34 34 34 34 35 35 35 35 35 35 35 36 36 36
57 53 52 53 54 55 56 57 53 50 48 46 44 42 41 40 39 38 37 36 35 34 34 33 33 33 33 33 33 33 33 32 33 34 34 35 35 35 35 35 35 35 35 35 35 36 36 36 36
55 52 52 53 55 56 57 59 56 51 49 47 44 43 42 41 41 40 38 37 36 36 35 34 34 34 34 34 34 34 33 34 35 35 35 35 35 35 36 36 35 35 35 35 35 36 36 36 37
55 54 54 54 55 59 56 58 58 52 49 47 45 44 44 43 42 41 39 38 37 36 36 35 35 34 34 34 34 34 34 34 35 35 35 35 35 36 36 36 36 35 35 36 36 36 37 37 38
57 56 55 56 58 60 56 58 58 50 47 45 45 45 45 44 43 41 40 39 38 37 36 36 35 35 35 34 34 34 34 35 35 35 35 35 35 35 36 36 35 35 35 36 36 36 37 38 38
59 57 57 57 57 58 57 57 55 49 44 43 44 44 45 44 43 41 40 39 38 37 37 36 36 35 35 34 34 34 35 35 35 35 35 35 35 35 36 35 35 35 35 36 36 37 38 38 39
59 59 56 55 56 57 58 55 51 48 43 42 42 43 43 43 42 40 39 38 38 37 37 36 36 35 35 35 35 35 35 35 35 35 35 35 35 35 35 35 35 35 35 36 37 37 38 38 39
58 57 58 58 57 57 57 54 49 44 41 40 40 40 40 40 40 39 38 37 37 37 36 36 36 35 35 35 35 35 35 35 35 35 34 34 34 35 35 35 35 35 36 37 37 38 38 39 39
59 58 58 57 57 57 56 53 46 42 39 37 37 38 38 38 38 38 38 37 37 36 36 36 36 36 36 35 35 35 35 34 34 34 34 34 35 35 35 36 36 36 37 37 38 38 39 39 40
57 57 57 56 55 55 54 51 46 42 38 36 36 37 37 37 37 37 37 37 37 37 37 37 36 36 35 35 35 34 34 34 34 34 34 35 35 35 35 36 36 37 37 38 38 39 40 40 41

GEFSSGP_500_meanwind_144.txt.gz
Wind_Speed
21 22 22 23 23 23 22 20 20 20 20 19 19 19 18 18 17 17 16 16 15 15 14 13 12 12 11 10 9 9 8 7 7 6 6 6 6 6 7 7 8 8 9 10 11 12 13 13 14
23 23 23 23 23 22 21 21 21 21 21 20 20 19 19 18 18 17 16 16 15 15 14 13 12 11 10 9 9 8 7 6 6 6 6 6 7 7 8 8 9 10 11 12 13 13 13 14 15
25 24 24 24 22 21 21 22 23 23 22 21 20 19 19 19 18 17 16 15 15 15 14 13 12 11 10 10 9 8 8 7 7 7 7 7 7 8 8 9 10 11 12 13 13 13 14 15 16
27 26 26 25 23 22 22 23 24 24 22 21 21 20 19 19 18 17 16 15 15 14 14 13 12 11 11 10 9 8 8 8 8 8 8 8 8 8 9 10 11 12 13 13 14 15 16 17 18
30 29 28 26 23 23 24 24 25 24 23 22 22 20 20 19 18 18 17 16 15 15 14 13 12 11 11 10 10 9 9 8 8 8 8 9 9 10 11 11 12 13 13 14 15 17 18 19 20
33 31 30 27 24 24 25 26 25 25 24 23 23 21 20 20 19 18 17 16 16 15 15 14 13 12 11 11 10 10 9 9 9 9 9 9 10 11 12 12 13 14 14 15 17 18 19 20 22
35 34 32 29 27 26 26 26 26 25 25 24 23 22 21 20 19 18 17 17 16 16 15 14 13 12 12 12 11 11 10 10 10 10 10 11 12 12 13 14 15 15 16 17 18 20 21 22 23
39 38 35 32 29 28 28 27 27 26 26 25 25 24 23 21 20 19 18 17 17 16 15 15 14 13 12 12 11 11 10 10 10 11 12 12 13 14 14 15 16 17 18 19 20 22 23 24 24
42 41 37 34 31 30 30 30 29 28 27 26 25 24 23 22 21 20 19 18 17 17 16 15 15 14 13 12 12 12 12 12 12 13 13 13 14 15 15 16 18 19 20 21 22 23 24 25 26
45 43 38 35 34 33 33 32 31 30 29 27 26 25 24 23 22 21 20 19 18 18 17 16 15 15 14 14 13 13 13 13 13 13 14 15 15 16 17 18 19 21 22 22 23 24 25 27 28
48 44 39 39 38 37 36 34 34 32 31 29 27 26 26 25 24 22 21 20 19 19 18 17 16 16 15 15 14 14 14 14 14 14 15 16 17 18 19 20 21 22 23 24 25 26 27 28 29
49 46 43 41 41 40 39 37 36 34 32 32 31 29 28 27 25 24 23 22 21 20 19 18 17 17 16 16 15 15 15 15 15 16 16 17 18 19 20 22 23 24 25 25 26 27 28 29 30
52 48 46 44 44 43 42 40 39 37 35 34 33 31 29 28 27 26 25 24 22 21 20 19 18 18 17 17 17 16 16 16 17 17 18 19 20 21 22 23 25 25 26 27 27 28 29 30 30
54 51 49 48 47 46 45 43 42 39 38 37 35 33 31 29 28 27 26 25 24 23 22 21 20 19 18 18 18 18 18 18 18 19 19 21 22 23 24 25 26 26 27 28 28 29 29 30 31
56 55 53 52 50 49 48 47 44 41 40 39 37 35 33 31 30 28 27 26 26 24 23 22 21 20 20 20 19 19 19 19 20 21 21 22 23 24 25 26 26 27 28 28 29 30 30 31 31
58 57 57 53 52 51 51 48 44 43 42 41 39 37 35 34 32 30 29 28 27 26 25 24 23 22 22 21 21 21 21 21 21 22 23 24 24 25 26 26 27 27 28 29 29 30 31 32 32
62 60 58 55 54 53 53 49 46 45 44 42 41 39 38 36 34 33 31 30 29 27 26 25 24 24 23 23 22 22 22 22 23 23 24 25 25 26 26 27 27 28 29 29 30 31 32 32 33
62 60 59 57 55 54 54 51 48 47 46 44 43 41 40 38 36 35 33 32 30 29 28 27 26 25 25 24 23 23 23 24 24 25 25 26 26 27 27 27 28 29 29 30 30 31 32 33 33
60 60 59 58 56 56 55 53 51 49 48 46 45 44 42 39 38 37 35 34 32 30 29 29 28 27 26 25 25 25 26 26 26 26 26 27 27 28 28 28 29 29 30 30 31 32 33 33 33
61 61 60 59 58 58 57 56 54 52 51 49 47 45 43 41 40 38 37 35 34 32 31 30 29 28 27 27 27 27 27 27 27 27 28 28 28 29 28 29 29 30 31 32 32 33 33 33 33
61 61 59 58 57 58 59 60 57 55 53 52 49 47 45 43 41 40 38 37 35 34 33 32 31 30 29 29 29 29 28 28 28 29 29 29 29 29 29 30 31 31 32 33 33 33 33 33 33
62 60 58 57 57 58 60 62 60 58 56 54 51 48 46 44 42 41 40 38 37 35 34 33 32 32 31 31 30 30 29 29 30 30 30 30 30 31 30 31 32 32 33 33 34 34 33 33 33
60 58 58 57 57 59 60 62 62 60 58 55 52 49 47 44 43 42 41 40 38 37 36 35 34 34 33 32 32 31 31 31 31 31 31 31 31 31 31 32 32 33 34 34 34 34 33 33 33
59 58 56 56 58 61 60 61 63 61 57 54 52 50 47 46 45 44 43 42 40 39 38 37 36 35 35 34 33 32 32 32 32 32 32 32 32 32 32 32 33 34 34 34 34 34 33 34 34
59 59 57 57 59 63 60 62 64 60 56 53 51 50 48 47 46 45 44 43 41 40 39 38 37 36 36 35 34 33 33 33 33 33 33 33 33 33 33 33 34 34 34 35 34 34 34 34 35
58 60 60 58 60 61 61 63 62 59 55 52 51 50 49 48 48 46 45 44 43 41 40 39 38 37 36 35 35 34 34 34 34 34 34 34 33 33 34 34 35 35 35 35 34 34 35 35 36
58 60 58 57 58 58 59 59 60 58 53 51 51 50 49 48 48 47 46 45 44 42 41 40 39 38 37 36 36 35 35 35 34 34 34 34 34 34 35 35 35 35 35 35 35 35 35 36 36
57 58 59 58 57 57 58 58 58 55 51 49 49 49 48 48 48 48 46 45 44 43 42 41 40 39 38 37 37 36 36 35 35 35 35 34 35 35 36 35 35 35 35 36 36 36 36 36 37
57 58 59 59 58 57 57 56 54 50 47 46 45 45 46 47 47 47 46 46 45 44 43 42 41 40 39 38 37 37 36 36 36 35 35 35 36 36 36 36 36 36 36 36 36 36 37 37 38
56 57 58 58 59 57 56 55 51 48 45 43 43 43 43 44 45 45 45 45 44 43 42 41 41 40 39 38 38 37 37 36 36 36 35 36 36 36 36 36 36 36 36 37 37 37 37 38 39

GEFSSGP_500_meanwind_150.txt.gz
Wind_Speed
29 29 29 29 29 29 26 25 26 26 26 26 26 25 24 25 25 24 21 19 19 18 18 17 17 16 15 14 13 12 11 10 9 8 8 7 7 7 7 7 8 8 9 10 10 11 13 13 14
31 31 31 31 30 28 25 25 27 27 26 26 26 25 24 25 25 23 21 20 19 19 19 18 18 16 15 14 13 12 10 9 9 8 7 7 7 7 7 8 8 8 9 10 11 12 14 14 15
34 34 33 32 30 27 25 26 27 28 28 27 25 25 26 26 24 23 22 21 20 19 19 19 18 17 15 14 13 11 10 9 9 8 8 8 8 8 8 8 8 9 10 11 12 13 14 15 16
37 37 36 34 31 28 27 27 28 29 29 27 27 27 27 25 23 23 22 21 21 20 19 19 18 17 16 14 13 12 11 10 9 9 8 8 8 8 8 8 9 10 11 12 13 14 14 16 17
40 39 39 36 32 29 29 29 30 30 29 28 28 28 27 25 24 24 23 22 21 20 19 19 18 17 16 15 13 12 11 10 9 9 8 8 8 8 8 9 10 11 12 13 14 15 16 17 18
42 42 41 37 33 31 30 30 31 30 30 29 29 28 28 26 25 24 24 23 22 21 20 20 19 18 17 15 14 13 11 11 10 9 9 9 9 9 9 10 11 12 13 14 15 16 17 19 20
44 44 42 39 36 34 32 32 32 31 31 30 30 29 29 27 26 25 24 23 22 22 21 20 20 19 17 16 15 13 12 11 11 10 10 9 9 9 10 10 12 13 14 15 16 17 19 20 22
46 47 45 42 38 35 34 34 34 33 32 31 31 31 30 28 27 26 25 24 23 22 22 21 20 19 18 17 15 14 13 12 11 11 10 10 10 10 11 12 13 14 15 16 17 19 20 22 23
49 50 48 43 40 37 36 36 35 34 34 33 33 32 31 30 29 27 26 24 23 22 22 22 21 20 19 18 16 15 14 13 12 11 11 11 11 12 12 13 14 15 16 17 18 20 22 23 24
52 52 48 43 42 40 39 38 37 36 35 35 34 33 32 30 29 28 27 26 24 24 23 22 22 21 20 18 17 16 15 13 13 12 12 12 12 13 13 14 15 16 17 19 20 22 23 24 25
54 52 48 46 44 43 42 41 39 38 37 36 35 34 33 31 31 30 28 27 26 25 24 23 22 21 20 19 18 16 15 14 14 13 13 13 13 14 14 15 16 17 19 20 22 23 24 25 25
55 54 51 48 47 46 45 44 43 41 38 37 36 35 34 33 32 31 30 28 27 25 25 23 23 22 21 20 18 17 16 15 15 14 14 14 14 15 15 16 17 19 20 21 23 24 24 25 26
56 55 54 51 50 49 47 47 45 43 40 39 39 38 36 35 34 33 31 30 28 27 25 24 23 23 22 21 20 18 17 16 16 15 15 15 15 15 16 17 18 20 21 22 23 24 25 26 27
56 56 56 55 53 51 50 49 48 45 43 42 41 40 38 36 35 34 33 31 29 28 27 26 25 24 23 22 21 19 18 18 17 16 16 16 16 16 17 18 19 21 22 23 24 25 26 26 27
57 58 58 57 55 53 53 53 50 46 45 44 43 41 39 38 37 36 34 33 31 30 29 27 26 25 24 23 22 21 20 19 18 18 17 17 17 18 18 19 20 22 23 24 25 25 26 26 27
58 59 60 58 56 55 56 55 51 49 48 46 45 43 41 40 39 38 36 34 33 32 30 29 28 26 25 24 23 22 21 20 19 19 19 19 19 19 19 20 22 23 24 24 25 25 26 27 28
60 59 59 59 58 57 58 57 53 51 50 48 47 45 44 42 41 40 38 36 35 33 32 31 29 28 27 26 25 23 22 21 21 20 20 20 20 20 21 22 23 23 24 25 26 26 27 28 29
59 59 59 59 58 58 59 59 55 54 52 51 48 47 46 45 43 41 40 38 36 35 34 32 31 30 29 27 26 25 24 23 22 21 21 21 21 22 22 23 24 24 25 26 26 27 28 29 30
57 58 59 58 57 59 61 60 58 56 55 53 51 49 48 46 45 44 42 40 39 37 35 33 32 31 30 28 27 26 26 25 24 23 22 23 23 23 24 24 25 25 26 26 27 28 29 30 31
59 58 59 58 58 59 62 62 60 59 58 55 53 51 50 48 47 46 44 43 40 38 37 35 34 32 31 30 29 28 27 26 25 24 24 24 24 25 25 25 26 26 27 27 28 29 30 31 32
60 60 58 57 58 59 61 64 63 61 60 58 55 53 52 50 49 47 46 44 42 40 38 36 35 34 33 32 31 30 29 27 27 26 26 26 26 26 26 27 27 28 28 29 29 30 31 32 33
58 58 57 57 58 60 61 64 64 62 62 60 57 55 54 52 51 49 48 46 44 41 39 38 37 36 35 34 33 31 30 29 29 28 28 28 27 27 28 28 28 29 29 30 30 31 32 33 34
54 54 55 56 57 60 62 65 65 63 63 62 58 56 55 53 52 50 49 47 45 43 41 40 39 38 36 35 34 33 31 31 31 30 29 29 29 29 29 29 29 30 30 31 32 32 33 34 34
50 51 53 55 57 61 61 63 67 64 62 61 59 57 55 54 53 51 50 48 46 45 43 42 40 39 37 36 35 34 33 33 32 31 31 30 30 30 30 30 30 31 31 32 33 33 34 35 35
50 50 50 53 58 61 59 62 67 63 61 60 59 58 56 54 53 52 51 50 48 46 44 43 41 40 39 38 36 35 34 34 34 33 32 32 31 31 31 31 31 32 32 33 33 34 35 35 35
50 51 52 51 55 58 59 62 65 60 59 59 59 58 56 54 54 53 52 51 49 47 45 44 43 41 40 39 38 37 36 35 35 34 34 33 33 33 33 32 32 33 33 33 34 35 35 36 36
51 52 51 50 50 52 58 60 61 58 57 57 58 58 57 54 54 54 53 52 50 48 46 45 44 43 41 40 39 38 37 36 36 35 35 34 34 34 34 33 33 34 33 34 35 35 36 36 36
49 49 50 52 52 52 53 56 58 57 56 55 55 57 57 55 54 54 53 53 51 49 47 46 45 44 42 41 40 39 38 38 37 36 36 36 35 35 34 34 34 34 34 34 35 36 36 37 37
50 50 51 52 52 50 50 52 53 53 54 54 53 53 54 55 54 54 53 52 52 51 49 48 46 45 44 43 41 40 39 39 38 37 37 37 36 36 35 35 35 35 35 35 35 36 37 37 38
47 50 50 50 51 51 49 48 45 46 48 50 51 51 52 53 53 54 53 52 52 51 50 48 47 45 44 44 43 42 41 40 38 38 37 37 37 36 36 35 35 35 35 36 36 36 37 38 38

GEFSSGP_500_meanwind_156.txt.gz
Wind_Speed
37 37 37 36 37 36 33 29 28 29 29 30 31 31 30 30 28 27 25 23 22 22 21 20 19 18 17 16 15 14 13 12 11 10 10 9 8 8 7 7 7 7 7 8 9 9 10 11 12
39 39 39 40 39 37 32 29 29 29 30 32 33 33 31 30 29 27 26 24 23 23 22 21 20 19 18 17 16 15 14 13 12 11 10 9 8 8 7 7 7 7 7 8 9 10 11 12 13
42 42 42 43 41 36 31 29 29 31 33 34 34 34 32 30 29 27 27 26 25 24 24 23 21 20 19 18 16 15 14 13 12 11 10 9 9 8 8 7 7 7 7 8 9 10 11 12 13
45 45 46 46 42 36 33 32 32 33 34 34 34 34 33 30 29 28 27 27 26 25 25 24 22 21 19 18 17 16 15 14 13 12 11 10 9 9 8 7 8 7 8 9 10 11 12 12 13
48 49 49 47 42 37 35 34 34 35 35 35 35 34 33 31 30 29 28 28 27 26 25 24 23 22 20 19 18 17 16 14 13 12 11 10 10 9 8 8 8 8 9 9 10 11 12 13 14
51 52 51 48 42 39 37 37 36 36 36 36 36 35 33 32 31 30 29 28 28 26 25 24 24 23 21 20 19 18 17 15 14 13 12 10 10 9 8 8 8 9 9 10 11 12 13 14 15
54 53 52 48 44 42 39 39 38 37 37 37 37 36 34 33 32 31 30 29 28 27 25 25 24 23 22 20 20 19 17 16 15 13 12 11 10 10 9 9 9 9 10 11 12 13 14 15 16
54 55 54 51 47 43 40 41 40 39 38 38 38 37 35 34 32 32 31 30 29 27 26 25 25 24 23 21 21 20 18 17 15 14 12 11 11 10 10 10 10 11 11 12 13 14 14 16 17
56 57 55 51 48 43 42 43 42 41 40 40 39 38 36 36 34 33 32 31 29 28 27 26 25 24 23 23 22 21 19 18 16 15 14 12 12 11 11 11 11 12 13 13 14 14 15 17 18
57 58 54 49 48 45 45 45 44 44 43 41 40 39 38 36 35 33 32 32 30 29 28 27 26 25 24 24 23 22 20 19 17 16 15 14 13 12 12 12 12 13 14 14 14 15 17 18 19
56 56 52 51 49 48 48 48 47 46 45 42 41 39 39 37 36 34 33 32 31 30 29 27 26 26 25 25 24 23 21 20 19 17 16 15 14 13 13 13 13 14 14 14 15 17 18 19 20
56 55 54 53 51 50 50 50 49 48 45 44 43 42 40 39 37 35 34 33 32 31 29 28 27 27 26 26 25 24 23 21 20 18 17 16 15 14 14 14 14 15 15 15 16 17 18 19 20
55 55 54 54 54 53 52 52 51 50 47 46 45 44 42 40 38 37 36 35 33 32 31 29 28 28 27 27 26 25 24 22 21 20 18 17 16 15 15 15 15 16 16 16 17 18 19 20 21
54 55 55 55 55 55 54 54 54 51 48 48 47 45 44 42 40 39 38 36 34 33 32 30 29 28 28 28 27 26 25 24 23 21 20 19 17 17 16 16 16 16 17 17 18 19 20 21 22
52 55 56 56 56 55 56 57 55 51 50 50 48 47 45 43 41 40 39 37 35 34 33 31 30 29 29 29 28 27 26 25 24 23 22 20 19 18 17 17 17 17 18 18 19 20 21 22 23
52 55 56 56 57 56 58 59 54 52 52 51 50 48 47 45 43 41 40 39 37 36 34 33 31 31 30 29 29 28 27 26 25 24 23 21 20 19 19 19 19 18 19 19 20 20 21 22 24
51 54 55 54 56 57 59 59 55 54 54 53 51 50 48 47 44 42 41 40 38 37 36 34 33 32 31 30 30 29 28 27 26 25 24 23 22 21 20 20 20 20 20 20 21 22 23 24 25
49 51 53 53 54 56 60 60 57 56 55 55 53 51 50 48 46 43 42 42 40 39 38 36 34 33 33 32 31 30 28 28 27 26 25 24 23 22 21 21 21 21 21 22 22 23 24 25 26
48 50 53 53 53 55 59 60 59 59 58 57 56 54 52 49 47 45 44 43 42 40 39 38 36 35 34 32 31 30 29 29 28 27 26 25 24 23 23 22 22 22 22 23 23 24 25 26 27
48 50 52 53 53 55 58 61 61 61 60 58 57 56 54 51 49 47 45 44 43 42 40 39 38 36 35 33 32 32 31 30 29 28 27 27 26 25 24 23 23 23 24 24 25 26 26 27 28
48 49 49 52 52 53 56 61 62 62 61 60 59 58 56 53 51 49 47 45 44 43 42 40 39 37 36 35 34 33 33 31 30 29 28 28 27 26 25 24 24 25 25 26 26 27 27 28 29
47 47 48 50 53 54 56 59 62 62 62 61 60 59 57 55 53 51 49 47 45 43 42 42 41 39 38 37 35 34 33 32 31 31 30 29 28 27 26 26 26 26 27 27 28 28 29 29 30
44 46 47 48 50 54 55 59 60 62 64 61 59 58 58 56 54 52 50 48 46 44 44 43 42 41 39 38 37 35 34 33 33 32 31 30 29 28 28 27 27 28 28 29 29 29 30 30 31
41 43 46 47 49 54 54 57 61 59 61 60 58 58 58 56 55 53 51 50 48 46 45 44 43 42 40 39 38 37 35 35 34 33 32 32 31 30 29 29 29 29 30 30 30 30 31 31 32
40 41 43 46 50 53 52 56 61 56 56 58 58 58 57 57 56 55 53 52 50 48 47 46 44 43 41 39 38 37 36 36 35 34 34 33 32 31 31 30 30 31 31 31 31 31 32 33 34
38 40 41 44 48 51 52 56 57 53 54 57 58 58 57 57 56 56 54 53 51 49 47 47 46 44 42 41 39 38 37 37 36 35 35 34 33 33 33 32 32 32 32 32 32 32 33 34 35
37 39 39 41 45 49 52 53 54 52 52 54 56 57 57 57 56 56 55 54 53 50 49 48 47 45 44 42 40 39 38 38 37 36 36 35 35 34 34 33 33 32 33 33 33 33 34 35 36
35 36 38 40 41 44 49 51 53 50 49 51 54 54 55 55 56 55 55 55 54 52 50 49 48 47 45 44 42 41 40 38 38 38 37 36 36 35 35 34 33 33 34 34 34 35 36 37 37
34 37 40 41 43 43 44 46 47 47 48 49 50 51 52 54 55 54 54 55 54 53 52 50 49 48 47 45 43 42 41 40 39 38 37 37 36 36 35 35 34 34 34 35 36 36 37 37 38
34 37 40 42 44 45 45 43 43 44 47 48 48 49 50 51 52 53 53 54 54 53 52 51 49 48 47 45 44 43 41 41 40 39 38 37 36 36 36 36 35 35 35 36 37 37 37 38 38

GEFSSGP_500_meanwind_162.txt.gz
Wind_Speed
38 39 40 41 43 44 41 35 32 30 31 32 34 35 35 35 34 32 31 28 27 26 26 25 23 22 20 19 17 16 14 13 12 11 10 9 8 7 6 5 4 4 5 5 5 6 7 8 9
42 42 44 45 46 45 40 35 33 31 33 35 36 37 37 36 35 33 31 30 29 28 28 27 25 24 23 21 19 18 16 15 13 12 12 10 9 8 6 5 5 5 5 5 5 6 7 9 10
45 46 47 48 48 44 39 35 34 35 36 37 38 39 38 37 35 34 32 31 30 30 29 28 27 26 24 22 20 19 18 16 14 13 13 11 10 9 7 6 6 5 5 5 6 6 8 9 10
47 49 50 51 48 42 39 37 38 38 39 39 40 40 39 37 36 35 33 32 31 31 30 29 28 27 25 23 22 20 19 17 15 14 13 12 11 10 8 7 7 6 5 5 6 7 7 8 10
49 51 53 53 47 42 40 40 40 41 41 40 41 41 39 38 38 37 35 34 32 32 31 31 29 28 27 25 23 21 20 18 16 15 14 13 12 11 9 9 8 7 6 6 6 7 8 9 10
51 53 55 53 47 43 42 41 42 43 43 42 42 41 40 39 39 38 37 35 34 33 33 32 31 29 28 26 24 23 21 19 17 16 15 14 13 12 11 10 9 8 6 6 7 8 9 10 11
52 54 55 52 48 45 43 43 44 44 45 44 44 43 41 41 40 39 38 37 36 35 34 33 32 31 29 28 26 24 22 20 18 17 16 15 14 13 11 10 9 8 7 7 8 9 10 11 12
52 54 55 53 50 46 44 45 45 46 46 46 46 44 42 41 41 40 39 38 37 36 35 34 33 32 31 29 28 26 23 21 20 19 18 16 15 13 12 11 10 9 9 9 9 10 11 12 13
51 54 54 51 50 46 45 46 46 47 48 47 46 45 43 43 42 41 40 39 37 36 35 34 33 32 31 30 29 27 24 23 21 20 19 17 16 14 13 12 11 10 10 10 10 11 12 13 13
51 53 51 49 48 47 46 47 47 49 49 48 47 46 45 44 43 42 41 39 38 36 36 35 34 33 32 31 30 28 26 24 23 22 20 19 17 16 14 13 12 11 11 11 12 12 13 13 14
50 50 48 49 48 48 48 48 49 50 49 48 47 47 46 44 44 43 41 40 38 38 37 36 34 33 32 32 30 28 27 26 25 23 22 20 19 17 16 14 13 13 13 12 13 13 14 14 15
48 47 48 48 48 49 50 49 50 50 49 49 49 48 48 46 44 44 42 40 39 39 38 37 35 34 33 32 31 29 28 27 26 25 23 22 20 19 17 16 14 14 14 13 14 14 14 15 16
45 45 45 47 49 49 51 50 51 50 50 51 50 49 48 47 46 45 44 42 40 40 39 38 37 35 34 33 32 30 29 29 28 27 25 23 22 20 18 17 16 15 15 14 15 15 16 16 17
43 44 44 45 48 51 51 51 52 51 50 52 51 50 49 48 47 46 45 43 42 41 40 39 38 36 35 34 33 32 31 30 29 28 27 25 23 21 20 18 17 16 16 16 16 16 16 17 18
42 44 43 43 46 49 53 54 51 50 52 53 52 51 51 50 48 47 46 44 43 42 41 40 39 38 36 35 34 33 32 31 30 29 28 26 24 23 21 20 19 18 17 17 17 17 18 18 19
41 44 44 42 43 48 53 54 49 50 53 53 53 52 52 52 49 48 47 45 44 43 42 41 40 39 38 36 35 34 33 32 31 30 29 27 25 24 23 21 20 19 19 18 18 18 18 19 20
40 42 43 42 43 47 52 53 50 51 53 54 54 53 53 52 51 49 48 46 45 44 44 42 41 40 39 38 36 35 34 33 32 31 30 28 27 25 24 23 22 21 20 20 20 20 20 20 21
39 40 42 42 43 45 50 52 51 52 53 54 54 54 54 53 52 49 48 48 47 46 45 44 42 41 40 39 37 36 34 33 32 31 31 29 28 27 25 24 23 23 22 21 21 21 21 21 22
36 39 41 41 41 45 48 51 51 53 54 54 55 55 55 54 53 52 50 50 49 47 46 45 43 42 40 39 38 36 35 34 33 32 32 30 29 28 27 26 25 24 24 23 23 22 22 23 23
33 36 39 41 41 43 47 50 51 53 54 53 55 56 56 56 55 53 52 51 50 49 47 46 45 43 41 40 39 38 37 35 35 34 33 31 30 29 28 27 26 26 25 25 24 24 24 24 25
31 34 37 40 40 42 46 49 50 52 53 53 55 56 56 57 56 55 53 52 51 49 47 46 45 44 42 41 40 39 38 36 35 34 33 32 31 30 29 28 27 27 26 26 26 25 26 26 27
31 31 34 37 40 42 45 49 49 50 53 53 54 55 56 57 57 56 54 52 51 50 48 47 46 45 44 42 41 39 37 36 34 34 34 33 32 31 30 29 29 28 28 27 27 27 27 28 28
29 30 32 35 38 41 44 48 49 50 51 52 53 54 56 56 57 56 55 53 51 51 49 48 47 46 45 44 42 40 39 37 36 36 35 34 33 32 31 30 30 29 29 29 28 28 29 29 29
28 29 31 33 36 40 39 45 47 48 48 49 51 52 55 56 58 57 55 55 53 52 51 49 48 47 46 45 43 41 39 39 38 37 36 35 34 33 32 32 31 31 30 30 30 30 30 30 30
28 29 30 32 35 37 37 42 45 44 46 47 49 52 54 56 58 58 57 56 54 53 52 51 49 48 47 46 44 42 40 40 39 38 37 36 35 34 33 33 32 32 31 31 31 31 31 31 31
28 28 29 31 33 33 35 39 42 42 43 45 48 51 53 55 58 58 58 56 55 54 53 52 50 48 48 47 45 43 42 41 40 39 38 37 36 35 35 34 33 33 33 33 33 32 32 32 33
29 29 29 31 34 35 35 36 38 41 42 44 47 49 51 53 56 58 58 57 56 55 54 52 51 49 48 48 47 45 44 43 41 40 39 38 37 36 36 35 35 34 34 34 34 34 34 33 34
30 30 31 32 33 35 37 35 35 38 42 44 45 48 50 51 54 57 58 58 56 56 55 53 51 50 49 49 48 47 45 44 43 42 41 39 38 37 37 37 36 36 36 35 35 35 35 35 35
29 31 32 34 35 35 37 35 33 35 39 43 44 46 49 51 53 55 56 57 57 56 56 55 52 51 50 50 49 48 47 45 45 44 42 41 39 39 38 37 37 37 37 37 36 36 36 36 36
30 32 33 35 36 37 38 35 34 34 37 41 44 46 48 50 52 54 56 55 55 56 56 56 54 52 51 50 50 49 48 47 46 45 43 42 41 40 39 39 39 38 38 37 37 37 37 37 37

GEFSSGP_500_meanwind_168.txt.gz
Wind_Speed
35 36 37 38 40 41 39 34 32 31 31 32 34 36 36 35 34 34 32 30 29 28 27 27 26 25 24 23 22 21 20 18 17 16 15 14 13 11 10 9 9 8 7 6 5 4 4 3 3
38 39 41 42 44 43 39 35 34 33 34 35 36 37 38 37 36 35 34 33 32 31 30 29 28 28 27 25 24 23 22 21 19 18 17 15 14 13 12 11 10 9 8 7 6 5 4 4 4
41 42 44 46 47 44 41 38 36 36 38 38 39 39 40 39 37 36 36 36 35 34 32 31 31 30 29 27 26 25 24 23 22 20 18 17 16 15 13 12 11 10 9 8 7 6 5 4 4
43 45 47 49 48 44 42 41 39 39 40 41 41 42 41 40 39 38 38 38 37 36 35 33 33 32 31 29 28 27 26 25 23 22 20 19 18 17 15 13 12 12 10 9 8 7 6 5 5
45 47 50 51 49 45 45 44 43 41 42 43 43 44 43 41 41 41 40 40 39 39 37 36 34 34 33 32 31 29 28 26 25 23 22 20 19 18 16 15 14 13 12 10 9 7 6 6 6
48 49 51 51 49 47 46 46 46 44 44 45 45 46 44 43 43 43 42 42 41 40 39 38 37 36 35 34 33 31 30 28 26 25 23 21 20 19 18 16 15 14 13 11 10 8 7 7 7
49 50 50 49 49 49 47 47 47 46 46 46 47 47 46 45 45 44 44 44 43 42 41 40 39 37 36 36 34 33 32 30 28 26 25 22 21 20 19 18 16 15 14 13 11 10 9 8 8
48 50 50 48 48 48 47 47 47 47 48 47 49 49 47 47 46 46 45 45 45 44 43 42 41 39 38 37 36 35 34 32 30 28 26 24 22 21 20 19 18 16 15 14 13 11 10 9 9
48 51 50 48 49 48 48 48 47 47 49 49 49 49 48 48 48 47 47 46 46 46 45 44 43 41 40 39 38 37 35 34 32 30 28 26 24 22 21 20 19 17 16 15 14 12 11 11 10
49 51 48 47 48 49 49 49 48 48 49 49 50 50 50 49 49 49 48 47 47 46 46 45 44 43 41 40 39 38 37 36 34 31 29 27 25 24 22 21 20 18 17 16 15 14 12 12 12
48 48 46 46 46 48 48 48 48 48 48 49 50 50 50 51 50 50 50 49 48 47 47 46 45 45 43 41 41 40 39 37 36 33 31 29 27 25 24 22 21 20 18 17 16 14 13 13 13
45 45 44 44 45 46 47 47 47 48 47 48 50 50 50 51 51 51 51 50 49 49 48 48 47 46 45 43 42 41 40 39 37 35 33 31 29 27 25 24 23 21 19 18 17 15 14 14 14
43 43 43 42 44 45 46 45 45 46 47 49 50 50 50 51 51 52 52 52 51 50 49 50 48 47 46 45 43 42 41 40 39 36 34 32 30 28 27 25 24 22 20 19 18 16 15 15 15
40 41 42 41 43 45 44 43 45 44 47 49 50 50 49 50 51 52 52 52 52 51 51 51 50 48 47 46 45 43 42 41 40 38 36 34 32 30 28 27 25 24 22 20 19 18 16 16 16
36 37 39 39 40 42 44 43 43 44 47 48 50 51 50 50 52 52 52 52 52 53 52 52 51 50 48 47 46 44 43 43 41 39 37 35 33 32 30 29 27 25 23 21 20 19 18 17 17
32 35 36 36 37 39 42 42 40 43 47 48 49 51 51 51 52 52 53 53 54 54 53 52 51 50 49 48 47 45 44 43 42 40 39 37 35 33 32 30 28 26 25 23 21 20 19 19 18
30 32 33 34 36 37 39 39 38 40 44 47 48 50 51 51 52 53 53 54 54 55 54 53 52 51 50 49 48 46 45 44 43 41 40 38 36 34 33 31 30 28 26 25 23 22 21 20 20
28 30 30 32 34 35 36 37 37 39 41 45 47 49 51 51 51 53 53 54 55 55 54 54 53 52 50 49 48 47 46 45 43 42 40 39 37 36 34 32 31 29 27 26 24 23 22 22 21
27 28 29 29 31 33 33 33 34 37 38 42 46 48 50 51 52 54 54 54 55 55 55 55 53 52 51 49 48 47 46 45 44 42 41 39 38 37 35 34 32 31 29 27 26 25 24 23 23
25 26 27 28 29 31 32 32 32 35 37 39 44 47 49 51 53 54 53 54 55 55 55 54 53 52 51 50 49 48 47 46 44 43 42 41 39 37 36 35 33 32 30 29 28 26 25 25 24
23 25 25 27 28 29 30 30 29 32 36 38 42 45 48 50 52 54 53 54 54 54 54 54 53 53 52 51 50 49 48 47 45 43 42 41 40 38 37 36 35 33 32 30 29 28 27 26 26
23 24 25 26 27 27 27 28 27 29 34 36 40 43 46 49 51 53 54 54 54 53 53 55 54 53 53 52 51 49 48 46 45 44 43 42 41 39 38 37 35 34 32 31 30 29 28 28 27
22 24 25 25 26 26 25 27 25 26 31 34 38 41 44 47 51 52 54 54 53 54 54 55 54 53 53 53 51 50 49 47 46 45 44 43 42 40 39 38 36 35 34 33 32 31 30 29 29
23 23 25 26 26 28 25 27 24 26 29 32 36 40 43 45 50 51 53 54 54 54 55 55 55 54 53 52 51 50 49 48 47 46 45 44 42 41 40 39 37 36 35 34 33 32 32 31 31
24 24 25 26 27 27 26 27 26 26 28 31 35 38 42 44 47 50 52 53 54 54 54 55 55 54 53 52 52 50 49 48 48 46 45 44 43 42 40 39 38 38 36 35 35 34 33 33 32
24 25 25 26 27 27 26 27 27 27 28 30 33 37 41 44 46 48 50 52 54 54 54 55 55 53 52 52 51 51 50 49 48 47 46 45 44 43 42 41 40 39 38 37 36 36 35 34 34
24 24 25 27 28 28 27 28 27 27 28 30 33 37 40 44 45 47 50 52 54 55 55 55 55 53 53 52 52 51 50 49 48 48 47 46 45 44 43 42 41 41 39 38 37 37 36 36 36
24 24 26 27 28 28 27 27 27 27 30 30 32 36 40 43 45 46 49 51 53 55 55 56 56 56 53 52 51 51 49 49 48 48 47 46 45 44 44 43 42 42 41 40 39 38 37 37 37
24 24 26 28 29 30 30 27 26 27 30 32 33 36 39 41 44 46 49 51 52 54 55 56 56 55 54 52 51 51 50 50 50 49 47 46 46 45 44 44 43 42 41 41 40 39 39 39 39
25 25 26 28 29 31 33 29 27 27 29 32 33 36 37 41 43 45 48 51 53 55 56 56 56 54 53 52 52 52 51 51 51 49 48 47 46 46 45 45 44 43 42 41 41 40 40 40 40

GEFSSGP_500_meanwind_174.txt.gz
Wind_Speed
31 32 33 34 35 35 34 32 31 30 30 30 31 32 32 32 32 35 35 32 29 28 28 28 28 28 27 26 26 25 24 23 21 20 19 18 17 16 15 14 13 12 11 10 9 9 8 7 7
34 35 36 37 38 37 35 33 34 33 33 34 35 35 35 35 34 36 36 34 31 30 30 30 30 30 29 29 28 27 26 25 23 22 21 20 19 18 17 15 14 13 12 11 10 10 9 8 8
37 38 39 41 40 39 36 36 36 37 37 37 38 37 37 37 37 39 38 35 34 33 33 32 32 32 32 31 30 29 28 27 26 25 24 22 21 20 19 17 16 15 14 13 12 11 10 9 9
40 41 43 44 43 40 39 39 39 40 41 40 41 41 40 39 40 41 39 38 36 35 35 35 34 34 34 33 32 31 30 29 28 27 26 25 23 22 21 19 18 16 15 14 13 12 11 11 10
43 44 46 47 45 43 42 42 42 43 43 43 44 43 43 42 43 42 42 40 39 38 38 37 37 36 36 35 34 33 33 31 30 29 28 27 26 24 22 21 19 18 17 15 14 13 13 12 11
45 46 48 49 46 45 45 45 45 46 45 45 46 45 45 45 45 44 44 43 42 41 40 39 39 39 38 38 37 36 35 34 33 31 30 29 28 26 24 23 21 19 18 17 16 15 14 13 12
47 48 50 50 49 47 47 47 47 48 48 48 47 47 47 47 47 46 46 45 44 43 43 42 41 41 40 40 39 38 38 37 35 34 32 31 30 27 25 24 22 21 19 18 17 16 15 14 13
48 50 51 51 51 50 49 49 49 50 50 49 49 49 48 49 49 48 48 48 46 45 45 44 43 43 42 42 41 40 40 39 37 36 34 33 31 29 27 25 24 22 21 19 18 17 16 15 14
49 51 53 52 52 51 51 51 50 51 51 50 50 50 49 51 51 50 49 49 48 47 47 46 45 45 44 43 43 42 41 41 39 38 36 35 33 31 29 27 25 24 22 21 20 19 17 16 15
49 52 52 52 52 51 50 51 50 51 52 52 51 50 49 51 52 51 50 50 49 48 48 48 47 47 46 45 44 44 43 42 41 40 38 37 35 33 31 29 27 25 24 22 21 20 19 17 16
48 50 50 51 51 51 51 50 48 50 51 51 52 51 50 51 52 51 51 50 50 49 49 49 49 48 48 47 46 45 44 44 43 42 40 38 37 35 33 31 29 27 25 24 23 21 20 19 18
45 46 48 48 47 48 49 48 47 47 49 49 51 51 51 50 51 51 51 51 51 51 50 50 50 50 50 49 47 46 46 45 44 43 42 40 38 36 34 32 30 28 27 25 24 23 21 20 19
41 42 44 45 45 46 47 47 46 45 46 46 48 50 51 51 50 51 52 52 51 51 51 51 51 51 51 50 49 48 47 46 45 44 43 41 40 38 36 34 32 30 28 27 25 24 23 22 21
38 39 40 42 43 45 46 45 45 44 45 45 47 48 49 49 50 50 51 52 52 52 52 52 52 52 52 51 50 49 48 47 46 45 44 43 41 39 37 36 34 32 30 28 27 26 24 23 22
36 37 37 39 41 42 45 44 43 42 42 43 44 45 45 46 48 49 50 50 51 52 52 52 53 53 52 52 51 50 49 49 47 46 45 44 43 41 39 37 35 33 32 30 28 27 26 24 23
35 36 35 35 38 39 43 43 39 40 42 42 42 42 43 45 46 47 49 49 51 52 52 52 53 53 53 53 52 51 50 49 48 47 46 45 44 42 40 39 37 35 33 31 30 29 27 26 24
34 34 34 33 34 36 40 41 39 38 41 41 40 40 41 43 44 45 47 48 50 51 52 52 53 54 54 53 52 52 51 51 49 47 46 46 45 43 41 40 38 37 35 33 31 30 29 27 26
32 32 31 31 32 35 37 38 37 38 39 39 39 39 39 41 42 43 46 47 49 51 52 52 52 54 54 54 53 52 51 51 50 48 47 46 45 44 42 41 39 38 36 34 33 32 30 29 28
31 31 30 30 29 34 36 35 34 36 37 37 38 38 37 40 42 42 44 46 47 50 51 52 53 53 54 54 54 53 51 50 50 49 48 47 45 44 43 42 40 39 37 36 34 33 32 31 29
30 30 29 29 29 31 33 33 32 32 34 35 35 36 35 37 40 41 43 45 46 48 49 51 52 53 53 54 54 53 52 50 50 49 47 47 45 44 43 42 41 40 39 37 36 35 33 32 31
29 28 30 30 29 30 33 33 30 29 30 33 34 35 35 35 37 40 42 44 45 46 49 50 52 52 52 53 54 53 53 51 51 50 48 48 47 45 44 42 41 40 39 38 37 35 34 33 32
28 27 29 29 29 30 31 33 28 26 26 29 30 32 34 35 37 39 40 42 44 44 47 49 51 51 52 52 54 53 53 51 50 50 50 48 48 46 44 43 42 41 40 39 38 36 35 34 33
29 28 29 28 29 29 28 31 26 24 24 25 26 29 32 35 36 37 39 40 42 44 46 48 49 51 51 52 52 53 53 51 50 50 50 48 47 46 45 43 42 41 41 40 38 37 36 35 34
30 30 29 29 29 29 27 29 28 25 24 25 25 27 30 34 35 36 38 39 41 43 45 47 47 49 51 52 52 52 53 53 53 51 51 48 47 47 46 45 43 42 42 41 39 38 37 36 35
30 30 30 30 29 28 27 29 26 26 26 26 26 26 28 31 34 35 37 39 40 42 44 46 47 47 48 50 52 53 53 53 53 51 51 49 48 46 46 45 44 43 42 41 40 39 37 37 36
29 28 28 30 30 29 27 28 26 25 26 27 27 28 28 28 31 34 36 37 40 42 43 45 47 47 47 48 50 52 53 53 53 52 51 49 47 47 45 45 44 43 43 42 41 40 39 38 37
28 28 27 28 30 30 29 28 28 27 26 26 27 27 28 29 31 34 34 36 39 42 44 45 47 47 47 47 48 51 52 52 51 52 52 49 46 45 46 45 44 44 43 43 41 41 40 39 38
27 27 27 27 29 30 30 28 28 28 27 27 28 28 28 29 31 33 35 35 37 41 43 45 46 47 45 47 48 49 51 52 51 51 51 48 46 44 44 44 44 44 43 43 42 41 41 40 39
27 27 27 29 29 31 32 30 28 28 29 29 29 30 31 31 32 33 35 36 38 40 42 45 46 47 46 47 48 49 51 51 50 49 47 48 48 47 46 43 42 42 42 42 42 42 41 40 40
27 27 27 29 30 32 33 31 27 28 29 30 31 31 31 32 34 35 36 37 39 40 41 44 47 47 46 47 49 49 49 50 49 49 48 47 47 46 45 44 44 43 42 41 41 41 41 40 40

GEFSSGP_500_meanwind_180.txt.gz
Wind_Speed
27 28 28 29 30 30 29 26 25 26 25 25 27 28 28 29 28 29 27 26 26 25 24 24 24 24 25 25 25 24 24 23 22 21 21 20 19 18 17 16 15 14 13 12 12 11 11 10 9
30 30 31 32 33 32 30 28 28 27 28 28 30 31 31 31 31 31 29 28 28 27 27 27 27 26 27 27 27 27 26 25 24 24 23 22 21 20 19 18 17 16 15 14 13 13 12 11 10
32 33 34 35 35 34 32 31 31 31 31 32 32 33 34 34 33 33 32 31 30 30 29 29 30 29 29 29 29 29 28 27 26 26 26 25 24 23 22 21 20 18 17 16 15 14 13 12 12
34 35 36 37 36 35 34 34 35 34 34 34 35 36 36 36 36 35 34 33 33 32 32 32 32 32 32 32 31 31 30 30 29 28 27 27 26 25 24 23 22 21 19 18 17 16 15 14 13
36 37 39 39 38 37 37 37 37 37 37 37 38 37 37 38 38 38 37 36 35 35 35 34 34 34 34 34 34 33 33 32 31 30 30 29 29 27 26 25 24 23 21 20 19 18 16 15 15
38 39 41 41 40 39 39 39 40 40 39 39 40 40 39 39 40 40 40 39 38 37 37 37 36 36 36 36 36 36 35 35 34 33 32 32 31 30 29 28 27 25 24 22 21 20 18 17 16
38 40 41 42 42 41 41 41 42 42 41 41 42 43 42 41 41 42 42 42 41 40 39 39 39 38 39 38 38 38 38 37 36 36 35 34 33 32 31 30 29 28 26 24 23 21 20 18 17
40 42 43 43 43 43 42 43 44 45 44 44 45 45 43 43 43 44 44 45 43 42 41 40 40 40 40 40 40 40 40 39 39 38 37 36 36 35 33 32 31 29 28 26 24 23 22 20 19
41 43 44 44 45 45 44 45 46 47 47 46 47 47 46 46 45 45 46 46 46 44 44 44 43 42 42 41 42 42 42 41 41 41 40 39 38 37 35 34 33 31 30 28 26 25 24 22 21
41 43 43 44 45 45 45 47 47 48 48 48 48 48 48 47 48 47 47 47 47 46 46 45 45 44 44 43 43 44 43 43 43 42 42 41 40 39 37 36 35 33 31 30 28 27 25 24 23
40 41 41 42 43 44 45 46 47 49 49 49 49 48 48 48 49 49 48 47 48 47 47 47 47 46 46 45 45 45 45 44 44 44 43 42 42 40 39 38 36 35 33 31 30 28 27 26 24
39 39 40 41 43 43 44 44 45 48 49 49 49 49 49 48 49 50 49 48 49 49 48 48 49 48 48 48 47 47 47 46 46 45 45 44 43 42 41 39 38 36 35 33 32 30 29 27 26
38 38 39 40 41 42 43 43 44 46 48 48 49 49 50 48 48 50 50 50 49 49 48 50 50 49 49 49 49 49 48 48 47 47 46 45 45 44 43 41 39 38 36 35 34 32 30 29 28
37 37 36 37 38 39 41 41 43 43 46 47 48 49 49 48 48 48 49 50 49 48 48 48 50 50 50 50 50 50 50 50 49 48 47 46 46 46 45 43 41 40 38 36 35 34 32 30 29
35 34 33 35 36 37 39 39 40 41 42 44 46 48 48 48 48 48 49 49 49 49 48 49 51 50 51 51 51 51 52 51 50 49 49 48 48 47 46 44 43 41 40 38 36 35 34 32 31
32 32 32 32 34 36 38 37 37 39 41 42 43 45 46 46 46 48 48 48 48 49 47 48 50 51 51 51 51 51 52 52 51 50 50 50 49 48 48 46 44 43 41 40 38 37 35 34 32
31 31 32 31 32 34 36 36 36 38 40 41 41 42 44 45 45 46 47 47 48 47 47 48 48 50 51 51 50 51 51 51 52 52 51 51 50 50 49 47 45 44 43 42 40 38 37 35 34
30 31 31 32 32 33 35 35 34 36 38 39 40 41 42 44 44 44 45 46 46 46 46 46 47 49 49 50 50 51 51 52 52 53 52 51 51 50 50 48 46 46 45 43 41 39 38 37 36
30 31 31 31 32 34 34 33 33 33 35 37 38 39 42 43 43 42 43 43 44 45 45 45 46 48 49 49 50 50 51 52 52 53 53 51 51 50 51 50 48 46 45 44 43 40 39 39 38
31 31 32 32 31 34 34 32 32 32 32 34 35 37 39 40 40 39 40 42 42 43 44 44 45 47 49 49 49 49 50 51 52 51 51 51 51 50 50 50 49 48 46 45 43 42 41 40 38
30 32 32 34 33 34 34 32 28 29 30 31 31 33 35 37 38 36 37 39 40 41 42 43 44 46 47 47 49 49 49 50 52 51 51 51 52 51 50 50 48 47 45 44 43 43 42 40 39
31 31 32 34 35 34 35 35 29 28 28 29 30 31 33 33 35 35 34 35 37 39 40 41 43 45 46 46 48 49 49 48 50 51 51 51 51 51 51 51 49 48 46 45 43 43 43 41 40
31 31 32 33 34 33 32 34 29 28 27 27 28 29 30 30 31 33 33 34 34 36 38 39 41 43 45 46 46 48 49 48 48 50 50 51 51 49 50 50 50 48 46 45 43 43 42 41 41
32 32 32 32 32 32 31 33 30 27 27 26 26 27 27 27 29 31 33 33 34 36 38 39 40 42 45 46 47 48 48 47 47 48 49 51 50 51 50 50 50 49 47 45 43 42 42 42 41
32 32 32 32 33 32 31 32 30 29 27 25 25 25 26 26 27 29 31 32 33 35 37 38 39 40 43 45 46 46 47 46 47 48 48 49 49 49 48 48 49 49 47 44 43 42 43 43 41
32 31 31 32 33 32 31 31 28 27 26 24 24 24 24 26 27 29 30 31 33 34 35 37 38 40 42 44 44 44 45 45 46 47 46 47 47 48 46 45 45 47 47 46 44 43 42 42 41
33 32 31 32 32 32 31 29 27 25 24 24 24 24 25 25 26 27 28 30 32 33 34 36 37 39 41 44 45 46 45 45 46 46 46 48 47 47 47 46 46 45 45 45 44 43 42 42 41
31 31 31 31 33 34 33 30 27 24 24 24 24 24 25 27 27 27 28 29 31 33 34 35 37 39 40 41 43 43 45 46 47 47 47 48 48 48 46 47 47 45 44 44 44 43 43 42 41
31 31 31 31 32 34 35 32 27 26 25 25 25 25 25 25 27 27 28 29 30 31 33 35 36 38 39 40 42 42 42 44 45 45 46 48 48 48 47 47 46 45 45 45 44 44 43 42 41
32 31 31 31 32 33 34 33 27 27 27 26 26 26 26 27 28 28 27 28 29 30 32 35 36 38 39 40 40 40 41 43 45 44 45 46 47 47 46 47 47 45 44 44 43 43 43 42 40

GEFSSGP_500_meanwind_186.txt.gz
Wind_Speed
25 26 26 27 28 28 26 24 23 22 23 24 25 26 26 26 26 26 26 25 25 25 25 24 24 23 23 22 22 22 21 20 20 19 18 17 17 16 15 15 14 14 13 13 12 12 12 11 10
27 28 28 29 30 29 27 26 25 26 26 27 27 28 28 28 28 28 28 27 27 27 27 26 27 26 26 25 24 24 24 23 22 21 20 19 19 18 18 17 17 16 15 15 14 14 14 13 12
29 29 30 31 31 30 28 27 28 29 30 30 30 30 31 30 30 30 30 30 30 29 29 29 29 29 28 28 27 26 26 25 25 24 23 22 21 20 20 19 19 18 18 17 16 15 15 15 14
31 32 32 33 31 30 30 30 31 32 33 33 33 34 33 33 33 32 33 33 33 32 32 32 31 31 31 31 30 29 29 28 27 27 26 25 24 23 22 21 21 21 20 19 18 17 17 17 16
32 33 34 34 33 32 32 33 33 34 35 36 37 36 36 36 35 35 35 35 35 35 34 34 34 34 33 33 33 32 32 31 30 29 28 28 27 26 25 24 23 23 22 21 20 20 19 18 17
32 33 34 34 33 34 34 34 36 37 38 39 40 40 39 39 39 38 37 38 38 37 37 37 36 36 36 35 34 34 34 33 33 32 31 30 29 28 27 26 26 25 24 23 23 22 21 20 19
32 33 34 34 35 35 35 36 37 38 39 41 42 42 41 41 41 41 40 40 40 40 40 39 38 38 38 37 36 36 35 35 35 34 34 33 32 30 29 29 29 28 27 26 25 24 23 22 21
32 34 34 35 36 36 36 37 38 39 40 42 43 44 42 42 43 43 42 42 42 42 42 41 40 40 40 39 38 38 38 37 36 36 35 35 34 33 33 32 31 30 29 28 27 26 26 25 24
33 35 36 36 37 37 38 39 39 41 42 43 44 44 44 44 44 44 44 43 43 43 44 43 43 42 42 42 41 40 40 39 39 38 37 37 36 36 35 34 34 33 32 30 30 29 28 27 26
34 35 36 37 38 39 39 40 40 41 42 43 44 45 46 45 46 46 45 44 45 45 45 45 45 44 44 44 43 43 42 41 41 40 39 39 38 38 37 37 36 35 34 33 32 31 30 29 28
34 35 35 36 38 39 39 40 40 42 42 43 44 45 46 47 47 48 47 46 46 46 46 46 46 46 46 46 46 45 44 43 42 42 41 41 40 39 39 38 38 37 36 35 34 33 32 31 30
34 34 35 37 39 40 40 40 41 42 42 44 45 46 47 49 49 49 48 48 48 48 47 48 48 48 48 48 48 48 46 46 45 44 44 43 42 41 40 39 39 38 38 37 36 35 34 33 32
33 33 35 37 39 40 41 41 41 41 43 44 45 47 47 48 49 50 50 49 49 49 49 49 49 50 50 50 49 49 48 48 47 47 46 45 44 44 43 41 40 40 40 39 38 37 35 35 33
33 34 35 36 38 39 40 40 41 41 44 44 45 46 47 48 50 51 51 49 48 49 50 50 51 51 51 51 51 50 50 50 49 49 48 47 46 45 44 44 43 42 42 41 40 39 37 36 35
33 33 34 35 37 39 40 39 40 41 42 43 44 45 46 48 50 51 50 49 50 50 51 51 51 52 52 52 52 52 50 51 51 51 50 48 47 47 46 45 45 44 43 43 42 41 40 38 37
32 33 33 34 36 38 39 37 37 39 40 41 42 43 44 45 48 49 50 50 51 51 51 51 51 52 53 52 53 53 51 51 52 51 51 50 49 49 48 47 47 46 45 45 44 43 42 41 40
32 33 33 34 36 38 39 37 36 38 40 40 41 42 42 43 45 47 48 49 51 51 50 50 51 52 53 53 53 53 53 53 53 52 52 52 51 50 50 49 49 49 47 46 46 44 44 43 41
32 33 33 34 36 37 39 38 37 39 40 40 40 40 41 41 42 44 46 46 49 50 50 50 51 51 52 53 53 53 53 52 53 53 52 52 51 51 50 50 49 50 50 48 47 46 46 45 43
33 34 34 34 36 37 37 37 37 38 40 40 41 41 40 40 41 42 43 45 46 47 47 49 48 49 52 53 53 52 52 53 52 53 53 52 51 51 50 50 50 50 51 50 48 47 47 46 45
34 35 36 36 36 38 37 36 36 37 38 39 41 41 39 40 40 41 42 43 45 46 46 47 47 49 50 51 51 52 52 52 52 53 53 52 52 52 50 50 51 51 51 51 50 49 48 48 46
34 36 37 38 37 38 39 36 34 36 37 38 39 39 40 40 39 39 41 42 43 45 45 46 47 48 49 49 51 52 52 52 52 53 52 52 52 51 51 51 51 51 51 50 51 50 48 49 47
35 37 38 39 38 37 38 38 33 34 35 36 38 38 39 38 38 39 40 41 42 42 43 45 44 45 46 47 49 50 51 51 52 52 51 52 52 51 52 52 51 51 51 51 51 50 49 49 48
37 37 38 38 37 37 36 38 35 35 35 35 36 37 37 36 37 37 38 39 39 40 41 42 42 44 45 46 47 47 49 50 51 51 51 51 52 51 51 51 50 50 51 50 51 50 50 49 48
36 37 37 37 36 37 35 37 36 35 34 35 35 36 36 35 35 35 36 37 38 38 38 40 42 43 44 45 45 45 45 47 48 48 50 49 50 50 49 49 50 50 50 50 51 50 49 49 49
35 36 37 37 37 37 36 37 36 35 34 36 36 35 34 34 33 33 35 36 35 35 37 39 40 40 41 42 42 44 45 45 46 47 47 48 48 48 48 48 48 49 50 50 50 48 48 48 49
36 36 36 38 39 38 36 37 35 34 35 36 35 34 33 33 33 32 33 34 34 35 36 37 38 38 40 40 41 42 43 43 44 46 47 47 47 46 46 48 47 47 49 50 50 48 47 47 48
37 36 36 38 39 39 38 37 35 34 36 35 34 33 33 32 32 31 31 31 33 35 37 37 37 37 38 39 39 41 42 42 43 44 46 46 46 46 47 48 47 46 47 49 49 47 46 46 46
36 37 37 37 39 41 40 38 37 36 35 35 34 32 30 29 30 31 31 32 33 34 36 37 37 36 38 38 38 39 40 41 42 43 44 44 45 45 45 46 45 46 47 47 47 47 46 46 45
36 36 37 38 39 41 42 39 36 36 35 35 33 31 30 29 30 30 30 30 32 33 35 36 36 36 36 37 37 38 39 39 41 42 44 44 43 44 44 45 45 45 46 46 45 45 44 44 44
36 37 37 38 40 41 42 40 36 36 36 35 33 31 30 30 30 30 29 29 31 32 34 35 36 36 37 37 37 37 37 38 39 41 43 43 43 44 44 44 45 44 46 46 45 44 44 44 43

GEFSSGP_500_meanwind_192.txt.gz
Wind_Speed
24 24 24 25 25 25 23 22 22 22 23 24 24 24 24 24 24 25 24 24 23 23 23 23 23 23 22 22 22 22 22 22 21 21 20 19 19 18 17 17 17 16 15 15 14 14 13 12 11
26 26 26 27 27 26 24 24 24 25 26 26 26 26 26 26 26 26 26 25 25 25 25 25 25 25 25 25 24 24 24 24 24 23 23 22 21 20 20 19 18 18 17 17 16 16 15 14 13
27 28 28 29 28 27 26 26 26 27 27 28 28 28 28 28 28 28 27 28 28 28 28 28 27 27 27 27 27 27 27 27 26 26 25 25 24 23 23 22 21 20 19 19 19 18 17 16 15
29 29 30 30 29 28 28 28 28 29 29 29 30 30 30 30 30 30 30 30 30 30 30 30 30 30 30 30 29 29 29 29 29 28 28 27 27 26 25 25 24 23 22 21 20 20 19 19 17
30 31 32 31 30 30 30 30 30 30 31 31 32 32 32 32 32 32 32 32 32 32 32 32 32 32 32 32 32 32 32 32 31 31 30 30 29 28 28 27 27 26 25 24 23 22 21 21 20
30 32 33 32 32 31 31 31 32 32 32 33 33 34 34 34 34 34 34 34 34 34 34 34 35 35 34 35 35 34 34 34 34 33 33 32 32 31 30 29 29 28 27 26 26 25 24 23 22
29 31 32 32 32 33 33 33 33 33 34 35 35 35 35 36 36 37 37 37 37 37 37 38 38 37 37 37 37 37 37 36 36 35 35 34 33 33 33 32 31 30 29 28 28 27 27 26 25
28 30 30 31 32 33 33 34 34 34 35 35 37 37 37 37 38 38 39 39 39 39 40 40 40 39 39 39 39 39 39 39 38 37 37 36 35 35 35 35 34 33 32 31 31 30 29 28 27
28 29 30 31 32 33 34 34 34 35 35 36 37 38 39 39 40 41 41 42 42 42 42 42 42 42 42 42 42 42 42 41 40 39 39 38 38 37 37 37 36 36 35 34 33 32 31 31 30
28 29 30 31 32 33 34 35 35 35 35 36 38 39 40 41 43 43 43 44 44 43 43 43 43 44 44 44 44 44 44 43 42 41 40 40 40 39 39 38 37 37 37 36 35 34 33 33 32
28 29 30 31 32 33 34 34 35 35 36 38 39 39 41 43 44 45 45 45 45 45 45 45 45 46 46 46 47 46 46 45 44 43 42 42 41 41 40 40 39 38 38 38 37 36 36 35 34
27 29 30 31 32 32 33 33 34 35 37 38 40 41 42 43 44 45 46 46 46 46 46 47 48 48 48 48 48 48 48 47 46 45 44 44 43 43 42 41 40 40 39 38 38 38 38 37 35
27 28 29 30 30 31 32 33 34 34 37 38 40 42 43 44 45 46 46 47 48 48 48 49 50 50 49 49 49 49 49 49 48 48 47 46 45 45 44 44 42 42 41 40 40 40 40 39 38
27 28 29 30 31 32 33 34 35 35 37 38 39 41 43 44 45 45 47 48 49 49 50 50 50 51 50 50 49 51 51 50 50 50 49 48 48 47 47 46 45 43 43 42 42 42 42 41 40
27 28 29 31 32 33 34 34 35 36 38 38 39 40 42 43 45 45 46 47 49 50 51 51 51 52 51 50 50 51 52 52 52 52 52 51 51 50 49 48 47 46 45 45 45 44 44 43 42
27 28 29 30 32 33 35 34 35 37 39 39 39 41 42 42 43 44 44 45 48 49 50 51 52 52 52 52 52 52 53 54 54 54 54 54 53 52 51 50 49 49 47 47 46 46 46 45 44
28 28 29 30 32 33 35 34 35 37 39 39 40 41 41 41 41 42 42 43 44 46 48 49 51 52 52 52 52 53 53 55 56 56 56 56 55 54 53 53 52 51 49 49 48 48 47 46 46
29 29 29 31 32 33 35 35 35 37 39 39 39 39 40 40 40 41 41 41 42 44 46 49 50 52 52 52 53 53 53 54 55 56 56 57 56 55 55 55 55 53 52 51 50 49 49 48 47
30 31 31 31 33 34 34 35 34 37 37 37 37 37 38 39 40 41 41 41 41 43 45 47 49 51 51 52 52 53 52 53 54 54 55 56 57 56 55 56 55 54 53 52 51 51 50 50 49
32 32 32 33 33 34 34 35 34 35 35 35 36 36 37 38 40 40 41 40 41 42 43 45 47 49 50 51 52 53 52 52 54 54 55 55 56 55 55 56 56 55 54 53 52 52 52 51 50
33 34 34 34 34 35 36 35 34 34 34 34 35 35 37 38 39 40 40 40 40 42 43 44 45 47 49 51 51 52 51 52 52 53 54 53 54 55 55 55 56 56 55 54 53 52 52 52 52
34 35 35 36 36 36 36 37 34 34 35 34 35 35 37 38 39 39 39 39 40 41 42 44 45 46 48 49 49 50 51 52 52 52 52 53 54 54 54 55 56 56 55 55 53 53 53 53 52
34 35 36 37 37 37 36 38 35 35 35 35 36 37 37 38 39 40 40 39 39 40 42 43 44 46 48 48 48 49 50 50 51 52 52 51 52 53 53 53 53 54 54 54 54 53 53 53 52
35 36 37 38 38 38 37 38 37 36 35 36 37 38 38 39 40 40 40 41 41 40 41 42 43 44 45 46 46 47 48 48 49 49 50 50 51 52 51 52 52 53 53 53 53 53 53 53 52
36 36 37 39 39 39 38 38 37 36 35 37 38 39 39 40 41 40 40 40 40 40 40 41 42 43 44 45 45 46 47 48 48 47 48 49 50 50 51 52 52 52 51 52 51 52 52 51 51
36 35 36 38 40 40 39 38 37 35 36 38 39 39 40 40 40 40 39 39 38 39 39 40 41 42 44 44 43 44 47 48 48 46 46 48 49 50 50 51 52 52 51 51 50 50 50 50 50
37 36 36 38 40 41 40 39 38 35 36 38 39 40 41 41 40 39 37 38 39 38 39 38 39 41 40 41 40 41 43 45 45 45 44 46 48 48 49 50 50 51 51 50 50 49 48 48 49
37 37 37 38 40 42 41 40 39 36 34 37 39 40 40 40 39 37 37 37 38 38 37 36 38 40 39 39 40 41 43 43 43 43 43 43 44 45 46 47 48 49 49 49 48 48 47 47 48
38 38 38 39 40 41 42 40 38 35 35 36 38 39 39 39 37 36 35 36 37 37 37 37 37 38 38 39 39 40 41 41 41 41 41 42 44 44 45 47 47 47 48 48 48 47 46 45 46
38 38 38 38 39 40 42 40 36 36 37 37 38 38 39 38 37 36 36 36 37 37 38 36 36 36 37 38 39 40 39 38 38 39 40 40 41 43 44 45 46 47 47 47 47 45 44 43 43

GEFSSGP_500_meanwind_198.txt.gz
Wind_Speed
25 25 26 26 26 26 24 23 24 24 24 24 24 24 24 25 26 27 25 23 23 23 23 23 22 22 22 22 22 22 22 22 21 21 20 20 20 19 18 18 17 17 17 17 16 16 16 16 16
27 27 27 27 28 27 26 26 26 25 24 25 25 26 27 27 28 27 26 25 25 25 25 25 25 25 24 24 24 24 24 24 24 23 23 22 22 21 21 20 20 19 19 18 18 18 18 18 18
28 29 29 29 29 28 28 28 27 26 26 26 27 28 29 29 29 28 28 28 28 27 27 27 27 27 27 27 26 26 26 25 25 25 25 25 24 24 23 23 22 22 22 21 21 21 20 20 20
28 30 31 31 29 29 30 30 29 28 29 28 29 30 30 30 30 31 30 30 30 30 29 30 30 29 29 29 29 29 28 28 28 27 27 27 27 27 26 26 25 25 24 24 24 23 23 22 22
29 30 32 32 31 31 32 32 32 32 31 31 31 31 31 31 32 32 32 32 32 32 32 31 32 32 32 31 31 32 32 31 31 30 29 29 29 29 29 28 28 27 27 26 26 25 25 25 24
28 30 32 32 32 32 33 33 33 34 34 33 33 33 32 33 33 33 34 33 33 33 33 33 34 34 34 34 34 34 34 34 33 33 32 32 32 32 32 31 31 30 30 29 28 28 26 26 26
27 29 30 31 32 33 33 33 34 35 35 35 35 36 34 36 35 35 35 35 34 34 34 34 35 35 35 35 35 35 35 35 36 36 35 35 34 34 34 34 33 33 33 32 32 30 29 29 28
27 29 29 30 31 32 33 33 34 35 35 36 36 37 36 37 37 36 37 36 36 36 36 36 37 37 37 37 37 38 37 37 37 38 38 37 37 37 37 36 36 35 35 35 34 33 32 31 31
27 28 29 30 31 32 32 33 34 35 35 36 36 37 37 38 38 38 39 39 39 39 39 40 40 39 39 39 40 40 40 39 40 40 40 39 39 39 39 38 38 37 37 36 36 35 34 34 33
27 29 29 30 31 32 32 33 34 34 35 36 37 37 37 38 38 39 40 40 40 41 42 42 42 42 42 42 42 42 42 42 42 42 42 42 41 41 41 40 40 39 39 38 37 37 36 35 35
27 28 28 30 31 32 32 33 34 34 34 36 36 37 37 38 38 39 40 41 42 43 43 44 44 44 45 45 45 45 45 45 45 45 45 44 44 44 43 43 42 41 40 40 39 38 38 37 36
26 26 27 28 30 31 31 32 33 34 35 36 36 37 37 38 38 39 40 42 43 43 44 45 46 46 46 47 47 46 46 46 46 46 46 46 46 46 46 45 44 44 43 42 41 40 40 39 39
26 26 27 28 29 30 31 32 33 34 36 36 37 37 37 38 39 40 41 42 43 44 45 46 47 47 48 48 48 48 48 48 48 48 48 48 47 47 47 47 46 45 44 44 43 42 41 41 40
26 26 27 28 29 30 31 32 33 33 36 37 38 38 38 39 39 40 41 43 44 45 46 47 48 49 49 49 50 50 50 50 50 50 49 49 49 49 49 48 47 46 46 45 45 44 44 43 42
27 27 27 28 30 30 32 32 32 33 35 37 38 39 40 40 40 41 42 43 45 46 47 48 49 50 51 51 52 52 52 52 51 51 51 51 50 50 50 49 49 49 48 47 47 47 46 45 44
28 29 29 29 31 31 32 31 32 34 35 37 38 40 41 41 41 42 43 44 45 46 47 49 50 50 52 52 53 54 54 54 53 52 53 53 53 52 51 51 51 50 50 50 49 49 48 47 47
29 30 30 31 32 33 34 32 32 34 36 36 38 40 42 42 42 43 43 44 46 47 47 48 48 49 50 52 53 54 55 55 54 54 54 54 55 54 54 54 53 52 51 51 51 51 50 50 49
31 31 31 32 33 34 35 34 34 35 36 37 38 39 41 43 43 44 44 45 46 46 47 47 47 47 48 50 52 53 54 54 54 55 54 55 55 55 55 54 54 54 53 53 53 53 53 52 50
33 33 33 32 34 35 36 35 35 37 37 38 39 40 41 43 44 44 44 45 45 45 46 46 47 47 47 49 50 51 52 53 54 55 54 54 54 55 55 55 55 55 55 55 55 55 55 54 53
34 35 35 35 35 37 37 37 36 37 38 39 40 41 42 44 44 44 45 45 45 45 45 45 46 46 47 48 48 49 50 51 53 55 54 55 55 55 56 55 55 55 56 56 56 56 56 56 54
35 36 36 37 37 37 39 38 36 37 38 39 41 41 42 43 43 44 45 45 44 44 44 45 45 45 45 46 46 47 48 49 50 53 55 56 56 55 55 56 56 56 57 57 57 57 57 56 55
37 37 38 38 39 39 40 41 37 37 38 39 40 40 41 42 43 44 44 44 44 43 44 44 44 43 44 45 46 46 46 47 48 51 53 54 55 55 56 57 57 56 56 56 56 56 56 56 55
39 39 40 40 41 42 40 43 39 38 38 39 39 40 41 41 42 43 43 43 43 43 43 42 43 43 44 44 45 46 47 48 49 50 52 52 53 54 55 55 55 55 55 54 55 55 56 56 55
39 40 41 42 43 43 40 42 42 39 39 39 40 40 41 41 42 42 42 42 42 43 43 42 42 43 43 44 45 46 47 48 49 49 51 51 52 54 53 53 53 53 53 52 52 53 54 53 54
39 40 41 43 43 43 42 43 42 41 40 40 40 40 40 41 41 42 42 42 43 43 43 43 43 42 42 43 44 45 46 47 47 47 48 50 51 51 50 51 51 51 52 51 51 51 52 52 52
40 39 40 42 44 44 43 43 42 42 42 42 41 40 40 40 41 42 42 42 43 44 44 43 43 43 43 43 44 45 45 45 45 46 47 47 48 49 49 50 51 51 51 50 49 50 50 50 49
39 39 39 41 43 44 43 43 42 41 42 42 41 40 41 41 41 41 42 42 42 43 43 43 44 44 42 42 43 44 44 44 44 44 45 45 46 48 49 50 50 49 48 48 48 48 48 48 48
39 39 39 40 42 43 43 41 41 40 40 41 41 40 40 41 41 41 42 42 43 43 44 43 44 44 43 43 42 42 42 42 43 44 44 44 45 46 48 48 48 48 48 48 47 47 47 48 48
39 40 40 41 41 43 43 41 39 40 40 40 40 40 40 41 41 41 41 42 43 44 44 43 43 43 44 43 40 40 40 40 41 42 43 43 44 45 46 46 45 45 45 46 47 47 47 47 47
40 40 40 41 41 42 43 42 38 39 39 40 41 41 41 41 41 41 42 42 43 43 43 43 42 41 42 41 40 39 38 39 40 40 40 41 42 42 42 42 43 43 44 44 44 45 46 46 46

GEFSSGP_500_meanwind_204.txt.gz
Wind_Speed
24 24 24 25 25 26 25 24 23 23 23 23 24 24 24 23 23 22 21 20 21 21 21 21 21 21 20 20 20 20 20 20 20 20 20 20 20 19 19 19 18 18 18 17 17 17 16 17 17
25 25 25 26 27 26 25 24 24 24 24 24 25 25 25 25 24 23 22 22 22 22 22 22 23 23 23 23 22 22 22 21 21 21 22 22 22 21 21 21 20 20 20 20 19 19 18 18 18
25 26 27 27 27 27 26 25 26 26 26 26 26 26 26 26 26 25 24 24 23 23 24 24 25 25 25 25 25 25 24 24 24 23 23 23 23 23 23 23 22 22 22 22 22 21 21 21 20
24 26 27 28 28 27 27 27 27 28 28 28 28 28 28 28 28 27 27 26 26 25 26 27 27 27 27 27 26 26 26 26 26 26 26 25 25 25 25 25 25 25 24 24 24 24 24 23 23
23 25 26 27 27 27 28 28 29 30 30 30 30 30 30 30 29 29 28 28 28 28 28 28 28 29 29 29 29 29 28 28 28 28 28 28 28 28 28 27 27 27 27 27 27 27 26 26 25
22 23 25 26 27 27 28 29 30 30 30 30 31 31 31 32 32 31 30 29 29 29 29 30 30 30 30 31 31 31 31 30 30 30 30 30 30 30 30 30 30 30 29 29 29 29 29 28 28
22 23 24 25 26 27 28 30 30 31 31 31 32 32 32 33 34 33 32 31 31 30 30 31 31 31 32 32 32 32 33 33 33 33 32 32 32 32 33 32 32 32 32 32 32 31 31 30 30
23 23 23 23 24 25 28 30 31 31 32 33 33 33 33 34 35 34 34 33 33 32 32 32 33 33 33 34 34 34 34 34 34 34 34 34 34 34 34 34 34 34 34 34 33 33 33 33 32
23 23 23 24 25 26 28 29 30 31 32 33 34 35 34 35 35 35 35 34 35 35 35 35 35 35 35 35 36 36 36 36 36 36 37 37 37 36 36 36 36 36 36 35 35 35 35 35 34
23 24 23 25 26 27 28 29 29 30 31 32 33 34 35 35 36 36 35 36 36 36 37 37 37 37 37 38 38 38 38 39 39 39 39 39 39 39 39 39 39 39 38 38 37 37 36 36 35
24 24 25 25 26 28 29 29 30 30 31 32 33 33 34 34 35 35 36 36 36 37 38 38 38 39 39 39 40 40 41 41 41 41 41 41 41 41 41 41 41 41 40 40 40 39 39 38 37
24 24 25 26 27 27 28 29 29 31 32 33 33 33 34 34 34 34 35 36 37 37 38 39 40 40 40 41 41 42 43 43 43 44 44 44 44 44 44 43 43 43 43 43 43 42 41 41 40
25 25 26 27 28 28 28 28 29 30 31 32 33 33 34 34 34 34 35 37 38 38 39 39 40 41 42 42 43 43 44 45 46 46 46 46 46 46 46 46 46 45 45 45 45 44 44 43 42
27 27 27 28 28 29 29 29 28 28 29 30 32 33 34 34 35 35 37 38 38 39 40 41 41 43 43 44 45 46 46 46 47 47 47 47 47 47 47 47 47 47 47 46 46 46 46 45 44
28 28 28 28 28 28 29 29 28 29 30 30 31 32 33 34 35 36 37 38 39 40 41 41 43 44 44 45 46 47 47 47 47 48 49 49 49 49 48 48 48 48 48 48 48 48 47 47 46
29 28 28 28 29 29 30 29 29 30 31 31 31 33 33 34 35 36 37 38 39 40 41 42 44 44 45 46 47 48 48 48 49 49 50 51 51 51 50 50 50 50 50 50 50 50 50 49 49
30 30 29 29 30 30 31 29 30 32 32 32 32 33 34 34 35 36 37 38 40 41 42 43 44 45 45 46 47 48 49 50 51 52 52 53 54 53 52 53 53 52 52 52 53 52 52 51 51
31 31 31 31 32 33 33 31 31 33 33 33 33 34 35 35 36 36 37 38 40 41 42 43 44 46 46 47 48 49 50 51 52 53 54 55 56 56 55 55 55 54 54 54 54 54 53 53 53
34 34 33 33 34 35 34 33 33 34 34 34 34 35 35 37 37 37 38 39 41 42 43 44 46 47 48 49 50 50 50 51 52 53 54 55 56 57 57 57 57 56 56 55 55 55 55 55 55
36 36 35 35 36 37 36 35 34 35 34 34 35 36 36 37 39 39 40 41 43 44 45 46 47 48 49 50 51 51 51 52 52 53 54 55 56 57 58 58 58 58 57 57 57 57 57 56 56
37 37 37 37 37 38 39 37 35 35 35 36 37 37 38 39 40 41 41 42 43 45 46 47 48 49 50 51 52 52 52 52 52 52 53 54 56 56 57 57 58 58 59 58 58 58 58 57 56
38 38 39 39 39 39 40 41 37 36 37 37 37 38 39 41 41 40 41 42 43 44 46 47 48 49 50 51 52 52 52 52 51 51 51 53 54 55 55 56 56 57 58 60 59 59 59 58 57
39 39 40 41 41 42 40 42 40 38 37 38 39 39 40 41 41 41 41 42 43 44 45 46 47 48 49 50 51 51 52 51 51 50 50 51 52 53 54 54 54 55 56 57 59 58 57 57 57
39 40 41 42 43 44 41 42 42 39 38 39 39 40 40 41 41 41 41 41 43 44 45 45 46 47 48 49 50 50 51 50 49 49 48 49 50 51 51 53 53 53 53 53 54 55 55 55 55
39 40 41 43 44 45 43 43 43 40 39 39 40 40 40 41 41 42 42 42 42 43 44 44 45 46 46 47 48 48 49 49 48 47 47 47 48 49 49 50 50 51 51 51 51 52 53 53 53
40 40 41 44 45 45 44 44 43 41 40 39 40 40 40 41 41 42 42 43 43 43 43 44 45 45 45 45 46 46 46 47 47 47 47 46 46 48 48 48 48 48 49 49 50 50 50 50 50
40 40 40 43 44 45 45 45 43 41 40 39 40 40 40 41 41 41 41 42 43 42 42 43 44 44 44 44 44 44 45 45 46 47 46 45 46 46 46 46 46 46 47 47 48 48 48 48 49
41 40 40 42 43 44 45 44 42 41 39 38 38 38 38 39 39 39 40 41 42 42 42 44 43 43 43 43 43 43 44 44 44 45 45 45 45 46 46 44 44 44 44 45 46 47 47 47 47
40 40 40 41 42 43 44 42 41 40 39 38 38 38 37 37 37 38 38 40 41 41 41 41 42 42 43 43 43 43 43 42 43 43 43 43 43 43 43 43 43 43 43 44 45 46 46 46 46
40 40 39 40 41 43 44 42 39 39 39 38 37 37 37 37 37 37 38 39 40 40 40 41 41 42 42 42 41 41 41 40 41 41 41 41 41 41 42 42 42 42 42 43 44 45 45 45 45

GEFSSGP_500_meanwind_210.txt.gz
Wind_Speed
23 24 24 25 26 26 24 23 24 24 24 24 24 24 24 24 24 24 22 21 21 21 21 21 21 20 20 19 18 18 18 17 17 16 16 16 16 16 16 16 16 16 16 16 15 15 15 14 15
23 24 25 26 27 25 24 24 25 25 26 25 25 25 24 24 24 24 23 22 22 22 22 22 22 22 22 22 21 20 20 19 19 18 18 18 18 18 17 18 17 17 17 17 17 17 16 16 16
24 25 26 27 27 25 25 25 26 27 27 27 27 26 25 24 24 24 24 24 24 23 23 24 24 24 24 24 23 22 22 21 21 21 20 20 20 20 20 20 19 19 19 19 19 18 19 18 18
24 25 26 27 26 26 26 26 27 28 28 28 28 28 27 26 26 26 25 25 25 25 25 25 25 25 25 25 25 24 24 24 23 23 23 22 22 22 22 22 22 22 21 21 21 21 21 21 21
25 25 26 25 25 26 27 27 28 29 29 29 30 29 29 29 28 28 28 27 27 27 27 27 27 27 27 26 26 26 26 25 25 25 24 24 24 24 24 24 24 24 24 24 24 24 23 23 23
24 25 24 24 24 26 27 28 28 29 30 30 31 31 30 31 31 31 31 30 30 30 29 29 29 29 29 28 28 28 28 27 27 27 26 26 26 26 26 26 26 26 26 26 26 26 26 25 25
24 24 24 23 24 25 26 28 29 30 31 31 32 32 31 31 32 32 32 32 32 31 31 31 31 31 31 31 30 30 30 30 29 29 29 28 28 28 28 28 28 28 28 28 28 28 28 28 28
25 25 24 23 24 25 26 28 29 30 31 32 33 32 32 32 32 33 33 33 33 33 33 33 33 33 33 32 32 32 31 31 31 31 31 31 30 30 30 30 30 30 30 30 30 30 30 30 30
26 26 24 24 24 25 26 27 28 29 30 31 32 32 32 33 33 34 34 34 34 34 34 34 34 34 34 34 34 33 33 33 33 33 33 33 32 32 32 32 32 32 33 33 33 33 33 32 32
26 25 24 25 25 26 26 27 28 29 29 30 32 33 33 33 33 34 34 34 35 35 35 35 35 35 35 35 35 35 35 35 35 34 34 34 34 34 35 34 34 35 35 35 36 36 36 35 35
26 25 25 25 26 26 27 27 28 28 29 30 31 32 33 34 34 34 34 35 35 35 36 35 36 36 36 36 36 37 37 37 37 36 36 36 36 37 37 37 37 37 37 38 38 38 38 38 38
27 26 27 27 27 27 27 27 28 28 29 30 31 32 33 33 34 34 35 35 36 36 36 36 36 37 37 37 37 37 37 37 37 38 38 38 38 38 39 39 40 40 40 40 40 40 40 40 40
29 28 28 28 28 28 28 28 28 28 30 31 32 32 33 33 33 34 34 35 35 36 36 37 37 37 38 38 38 38 38 38 38 39 39 39 40 40 41 41 41 42 42 43 42 42 43 42 42
30 30 30 30 30 30 30 30 29 28 31 32 32 33 33 33 34 34 35 35 35 36 36 37 38 38 39 39 39 39 40 40 41 41 41 42 42 43 43 44 44 44 45 45 45 44 44 44 44
32 31 31 31 31 31 32 31 29 30 32 32 33 33 34 34 35 35 35 36 36 36 37 38 38 39 40 40 41 42 42 43 43 44 44 44 44 45 45 46 46 47 47 47 47 47 47 47 47
34 33 32 31 32 32 33 31 29 31 32 33 33 34 36 36 37 37 37 36 37 37 38 39 40 40 41 42 43 43 44 44 45 46 46 46 46 47 47 48 48 49 49 49 49 49 49 49 49
36 35 34 33 33 33 34 32 31 32 33 33 34 35 36 36 36 37 37 38 38 38 39 40 41 42 43 43 44 45 45 46 47 47 48 48 48 49 49 50 50 51 51 51 51 51 51 51 52
38 37 36 35 35 35 35 34 33 34 34 34 34 35 35 35 36 37 37 38 39 39 40 41 42 43 44 44 45 45 45 46 47 47 48 49 50 50 51 51 52 52 53 53 53 53 53 53 53
40 39 37 37 37 37 37 35 35 35 35 35 35 36 36 36 37 37 38 39 40 40 41 42 42 43 44 44 44 45 45 46 47 47 49 50 51 52 52 53 54 54 54 55 55 56 56 56 56
40 39 39 39 39 39 39 37 36 37 36 36 36 36 37 37 38 39 40 40 41 41 42 43 43 44 45 45 46 46 47 47 48 48 49 50 51 52 54 54 55 56 56 56 57 57 57 57 57
41 40 39 40 40 41 41 39 37 37 37 37 37 37 37 38 38 40 41 41 41 42 43 44 45 45 46 47 47 47 48 49 49 49 49 50 51 53 54 55 56 57 57 58 58 59 59 59 59
42 41 41 42 42 43 42 42 37 37 37 37 37 37 38 38 39 40 41 42 42 43 44 45 45 46 47 48 48 49 49 49 50 50 51 51 53 54 56 56 57 57 58 59 59 60 61 61 60
43 43 43 43 44 45 43 44 40 38 37 37 37 38 39 40 40 41 42 43 43 44 45 45 46 47 48 48 49 50 50 51 52 52 53 53 54 56 57 57 57 57 58 59 60 61 61 61 60
44 44 44 45 45 47 43 44 43 39 38 38 39 40 40 40 41 42 43 43 44 45 46 46 46 47 48 49 50 51 52 52 53 54 55 55 56 57 57 57 57 58 58 58 58 58 58 59 59
44 44 44 45 46 47 44 44 44 41 39 39 40 41 41 42 43 43 43 43 44 45 46 47 47 47 48 49 50 51 52 53 54 55 56 56 57 57 57 56 56 56 55 55 55 55 55 56 57
43 43 44 45 46 46 45 44 43 42 41 40 40 41 42 42 43 43 43 44 44 45 45 45 46 48 49 50 51 51 52 53 54 55 56 56 56 56 55 55 54 54 54 53 53 53 53 54 53
43 43 43 45 47 47 47 45 43 41 41 41 40 41 41 41 42 43 43 44 44 44 45 45 46 47 48 49 50 51 52 52 54 54 55 55 54 53 52 52 52 52 52 52 52 52 51 51 51
43 42 42 43 45 46 47 45 43 41 40 41 41 41 40 41 41 42 42 43 44 44 44 45 46 47 47 49 49 50 50 51 52 53 53 53 51 50 50 50 50 50 50 50 50 50 49 49 48
42 43 43 44 46 46 47 46 44 43 41 41 41 41 40 41 41 41 42 43 43 44 45 45 46 46 47 47 48 48 49 50 50 50 49 49 48 48 48 47 48 49 49 49 48 47 46 46 46
42 43 43 44 45 46 47 48 45 44 43 43 42 42 41 42 42 42 42 41 42 43 44 44 45 46 46 47 47 47 47 47 47 46 46 46 46 46 46 46 47 47 47 47 46 45 45 45 45

GEFSSGP_500_meanwind_216.txt.gz
Wind_Speed
23 24 24 24 25 25 24 23 23 24 25 25 24 23 23 22 22 23 22 21 21 21 21 21 20 20 19 19 19 19 18 18 17 17 17 16 16 15 15 15 15 14 14 14 13 13 13 13 13
24 24 25 25 25 24 24 23 24 25 25 25 25 25 24 24 23 23 22 22 22 22 22 22 22 22 21 21 20 20 20 19 19 18 18 18 18 17 16 16 16 16 16 15 15 15 15 14 14
25 25 25 25 24 23 24 24 25 26 25 25 25 26 25 25 25 24 23 23 23 23 23 23 23 23 23 23 22 22 21 21 20 20 20 19 19 18 18 18 18 17 17 17 17 17 17 16 16
25 26 26 25 24 24 25 25 26 26 26 26 26 27 26 26 26 25 25 24 24 24 24 23 23 24 24 24 24 23 23 23 22 22 22 21 21 21 20 20 19 19 19 19 19 19 19 19 19
27 26 26 25 24 25 26 27 28 28 27 27 27 27 27 27 27 27 26 26 26 26 26 25 25 25 25 25 25 25 25 24 24 24 24 23 23 23 23 22 22 21 21 21 22 22 21 21 21
28 28 27 25 25 26 27 28 29 29 29 28 28 28 28 28 28 28 27 27 27 27 27 27 26 26 26 26 26 26 26 25 25 25 24 24 24 24 25 24 24 24 24 24 24 24 24 23 23
28 28 27 26 26 26 27 28 28 29 30 30 30 29 29 29 29 29 29 29 29 29 28 28 28 28 28 27 27 27 27 28 27 27 27 26 27 26 26 26 26 26 26 25 25 25 25 25 25
29 29 27 26 26 27 27 28 28 29 30 30 30 30 30 31 31 31 31 31 31 30 30 30 30 30 30 30 30 29 29 29 29 29 29 29 29 29 29 28 28 28 28 28 27 27 27 27 27
30 30 28 27 27 27 27 28 28 29 29 30 30 30 30 31 32 32 33 33 32 32 32 32 31 32 32 32 31 31 31 31 31 31 31 31 30 30 30 30 30 29 29 29 29 29 29 30 30
30 29 27 28 28 28 28 28 28 28 28 29 30 30 31 31 32 33 33 33 33 33 33 33 33 33 33 33 33 33 33 32 32 32 32 32 32 32 32 32 32 32 32 31 31 32 32 32 32
30 29 29 29 29 29 29 29 28 28 28 28 29 29 30 31 32 33 33 34 33 33 33 33 33 34 34 34 34 34 34 34 34 34 34 34 33 34 34 34 34 34 34 34 34 34 34 34 34
31 30 30 30 30 30 30 29 29 28 28 28 29 29 30 31 32 32 33 34 34 34 34 34 34 35 35 35 35 35 35 35 36 35 35 35 35 35 35 35 36 36 36 36 36 37 37 37 37
33 31 31 31 31 31 30 30 29 28 29 29 29 29 30 30 31 32 33 33 33 34 35 35 36 36 36 36 36 36 36 36 36 37 36 36 36 36 37 37 38 38 38 38 39 39 39 40 40
34 33 32 32 31 31 31 31 30 28 30 30 30 30 30 30 31 32 32 33 33 34 35 35 36 36 37 37 36 37 37 37 37 37 37 38 38 39 39 39 39 40 40 41 41 42 42 42 43
35 35 34 33 33 32 33 32 30 30 31 31 31 31 31 31 31 32 32 33 34 34 35 35 36 36 37 37 37 37 38 38 38 38 39 39 40 40 40 41 41 41 42 42 43 43 44 44 44
36 36 35 34 34 34 35 32 31 32 33 32 32 32 32 32 33 33 33 34 34 35 35 36 36 37 37 38 38 38 39 40 40 40 40 41 41 42 42 42 42 43 43 44 44 45 45 46 47
38 37 36 35 36 36 36 34 33 34 34 33 33 33 33 33 33 34 34 35 35 36 37 37 37 38 38 38 39 39 40 40 41 41 42 43 43 43 44 44 44 45 45 46 46 47 47 48 49
39 38 37 37 37 37 37 36 35 35 35 35 34 34 33 33 33 34 34 34 35 36 38 39 39 39 39 40 40 40 41 42 42 43 44 45 45 45 46 46 47 47 47 48 49 50 50 51 52
40 40 39 39 39 39 39 38 37 36 36 36 35 35 34 34 35 35 35 35 35 36 38 39 40 40 41 41 41 42 43 43 44 45 46 46 47 47 47 48 49 49 50 50 51 51 52 52 53
41 41 40 40 40 40 40 39 38 38 37 37 36 36 36 36 37 37 37 37 37 38 38 39 41 42 42 42 43 43 44 44 45 45 46 47 47 47 48 49 49 50 51 51 51 52 52 53 54
42 42 41 41 41 42 42 41 39 38 38 38 38 38 37 37 38 38 38 38 39 39 39 40 41 42 43 43 43 43 44 45 46 46 47 47 48 48 48 49 49 50 51 51 51 52 53 53 53
42 42 42 42 42 43 43 43 40 39 39 39 39 39 39 38 39 39 39 39 39 40 40 41 41 42 43 43 44 44 45 46 46 47 47 48 48 48 49 49 50 51 51 52 53 54 53 53 53
44 43 43 43 44 45 44 45 42 40 39 40 40 39 39 39 39 39 39 40 40 40 41 41 42 43 44 44 45 45 46 47 47 48 49 49 49 49 50 50 51 52 52 53 53 53 53 54 54
44 44 44 44 45 46 44 45 44 40 39 40 40 40 40 41 41 41 40 40 41 41 42 42 43 43 44 44 44 45 47 48 48 49 50 50 50 51 51 52 53 53 54 54 53 54 54 54 55
43 43 43 44 45 46 44 44 44 41 40 40 40 40 40 40 41 41 41 42 42 43 43 43 43 44 44 45 45 46 48 49 50 50 50 51 52 52 52 53 54 55 55 55 55 55 54 55 56
42 42 43 44 45 45 45 44 43 41 40 39 39 39 39 40 40 41 42 42 43 43 43 43 44 44 45 46 47 48 49 50 51 51 51 52 52 53 53 54 54 55 55 55 56 56 56 56 57
42 42 41 42 44 45 45 45 44 42 40 39 39 39 39 40 40 41 41 41 42 43 42 43 44 44 45 45 47 48 49 50 50 51 51 52 53 53 54 54 55 55 55 55 56 56 56 56 56
42 42 42 42 42 43 45 44 42 40 40 39 39 39 39 39 39 40 40 41 41 41 42 42 43 44 45 46 47 47 48 48 49 50 52 53 54 54 54 54 55 55 55 55 56 56 55 55 55
40 41 42 43 44 43 43 43 42 40 39 39 38 37 37 38 39 39 39 40 40 40 40 41 42 43 44 46 47 47 48 48 49 50 52 53 53 53 54 54 54 54 53 53 53 53 53 53 52
39 40 40 41 43 43 42 43 41 40 39 39 38 37 37 38 38 38 38 39 39 40 40 40 41 42 44 45 47 48 48 48 49 50 51 51 51 52 52 53 52 51 51 50 50 50 50 50 49

GEFSSGP_500_meanwind_222.txt.gz
Wind_Speed
26 26 26 26 26 25 24 24 24 24 23 23 24 24 23 24 24 25 22 20 20 21 20 20 20 20 20 19 19 18 18 17 17 16 15 15 15 15 15 15 14 14 14 14 13 13 13 13 13
27 27 28 27 27 25 23 24 25 25 24 24 24 24 25 25 25 24 23 22 22 22 22 22 22 21 21 21 20 20 19 19 19 18 17 16 16 16 16 16 16 16 16 15 15 15 15 15 14
29 29 29 28 27 25 24 26 26 25 25 25 25 25 26 26 24 24 23 23 23 23 23 23 23 23 22 22 22 21 21 20 20 19 19 18 18 18 17 18 18 17 17 17 17 17 17 16 16
30 30 30 29 27 26 27 28 26 26 26 26 26 26 27 26 24 25 25 24 24 24 24 24 24 23 23 23 23 23 22 22 22 21 21 20 20 20 20 20 20 20 19 19 19 19 19 18 18
31 31 31 29 27 28 29 29 28 28 28 27 27 27 27 26 26 27 26 26 25 24 25 24 24 24 24 24 24 24 24 24 24 23 23 23 22 22 22 22 22 21 21 21 21 21 21 20 20
32 33 32 30 29 30 30 30 29 29 29 29 29 29 28 28 28 28 28 28 27 26 26 25 25 25 25 25 25 25 25 25 25 24 24 24 24 23 23 23 23 23 24 23 23 23 23 23 22
34 34 33 31 31 31 32 31 30 30 30 30 30 31 29 29 29 29 29 29 28 28 28 27 27 26 26 26 25 25 25 25 25 25 25 24 24 24 24 24 24 24 25 25 25 25 25 25 24
35 35 34 32 32 33 33 32 31 31 31 30 31 32 30 30 30 30 30 30 29 30 29 28 28 27 27 27 26 26 26 26 26 26 26 26 26 26 25 25 26 26 26 26 26 26 26 26 26
36 36 33 33 34 35 34 32 32 31 31 31 31 31 30 30 31 31 31 31 30 30 30 30 29 29 29 29 28 27 27 27 27 27 27 27 27 27 27 27 27 27 27 27 27 27 27 27 27
37 36 34 34 35 35 33 33 33 32 32 31 31 32 31 31 32 32 31 31 31 31 31 31 31 31 31 30 30 29 29 29 29 29 28 28 29 29 29 29 29 29 29 29 29 29 29 29 30
38 36 35 36 36 35 34 34 34 33 32 32 32 32 32 32 32 32 32 32 32 32 32 32 32 32 32 32 31 31 31 31 31 31 31 31 31 31 31 31 31 31 31 32 32 32 32 33 33
38 38 37 37 37 36 36 35 35 34 33 33 33 33 32 32 32 33 33 32 32 32 32 33 33 33 33 33 33 32 32 32 32 33 33 33 33 33 33 33 33 33 33 34 34 34 35 35 35
39 38 38 38 37 37 37 37 36 34 33 34 33 33 32 32 32 32 32 32 32 32 33 33 33 33 34 34 34 34 34 34 34 34 34 34 34 34 35 35 35 35 35 35 36 36 37 37 38
40 39 39 38 38 37 37 37 36 33 34 34 34 33 32 32 32 32 32 32 32 32 33 33 33 34 34 35 35 35 35 36 36 36 36 36 35 35 35 36 37 37 37 37 38 38 38 39 39
40 40 40 39 38 38 38 37 36 34 35 35 34 33 33 33 33 33 33 32 32 32 33 33 33 34 35 35 36 36 36 36 36 36 36 36 37 37 37 37 38 38 38 39 39 40 40 40 41
41 41 40 39 39 39 39 37 35 36 36 36 35 34 34 34 34 34 33 33 33 33 33 34 34 35 35 35 36 36 37 37 37 37 37 37 38 38 38 39 39 39 40 40 41 41 42 42 42
42 41 40 39 40 40 40 38 36 37 37 37 36 36 36 36 35 35 35 35 35 34 34 35 35 36 36 36 37 37 37 38 38 39 39 39 39 39 39 40 40 40 41 41 42 42 43 43 43
42 42 42 41 41 41 41 39 38 38 38 38 38 37 37 37 36 36 36 36 35 35 35 36 36 36 37 38 38 38 38 38 39 39 39 40 40 40 40 41 41 42 42 43 43 44 44 45 45
43 43 44 44 43 43 42 41 40 40 39 39 38 39 38 38 38 38 37 36 36 36 36 36 37 37 37 38 39 39 39 39 40 40 40 41 41 42 42 42 43 43 44 44 45 45 46 46 47
43 44 45 45 44 45 44 43 42 41 40 40 39 39 39 39 39 38 38 37 37 37 37 37 37 38 38 39 40 40 41 41 41 42 42 43 43 44 44 44 44 45 45 45 46 47 47 48 49
44 44 44 45 45 46 47 46 44 42 42 41 41 40 40 40 40 39 39 38 38 38 38 38 39 39 40 40 41 41 41 42 43 43 44 44 44 45 45 46 46 46 46 47 48 49 49 49 50
44 44 44 45 46 47 47 48 46 44 43 43 42 42 41 41 41 40 40 39 40 40 40 40 41 41 41 41 41 42 42 43 43 44 45 45 45 46 47 47 47 48 48 49 49 50 50 51 51
44 44 44 45 46 48 48 49 47 45 44 43 43 42 42 42 42 42 41 41 41 41 41 42 42 42 42 42 43 43 44 44 45 45 46 46 47 47 48 49 49 49 50 50 50 51 51 52 52
44 43 43 44 45 48 47 48 49 46 44 43 42 42 42 43 43 42 42 42 42 42 42 43 43 43 43 44 44 45 45 46 46 46 47 47 47 48 49 49 50 50 50 51 51 52 52 53 53
44 44 44 45 46 48 46 48 49 46 44 43 42 42 42 42 43 43 43 43 43 43 43 44 44 44 44 45 45 46 46 47 47 48 48 48 48 49 48 49 50 50 51 52 52 52 53 54 54
44 44 45 45 46 46 45 47 48 46 44 44 42 42 42 42 42 43 43 44 44 44 44 44 44 44 44 45 45 46 47 48 48 49 50 50 50 50 50 50 50 51 51 52 52 53 54 54 54
44 45 44 44 44 45 46 46 46 45 45 44 43 42 42 42 42 42 43 43 44 44 44 44 44 44 44 45 46 47 47 48 49 50 50 50 50 50 51 50 50 51 52 52 54 54 54 53 53
44 43 44 45 45 43 44 44 44 45 45 45 43 42 42 42 42 42 43 43 43 43 43 43 43 44 44 45 46 47 48 48 49 49 49 50 51 51 51 50 51 51 53 54 54 54 54 54 53
43 44 45 45 46 45 43 43 43 44 44 44 43 42 42 41 41 41 41 42 42 43 43 43 44 44 45 45 46 46 47 47 47 47 48 49 50 50 50 50 51 52 53 53 54 54 54 54 54
41 42 43 43 44 45 44 43 42 42 43 44 43 42 41 41 41 41 41 41 41 42 42 43 43 44 45 45 46 47 46 46 46 46 47 47 48 49 50 50 51 52 53 53 54 54 54 53 53

GEFSSGP_500_meanwind_228.txt.gz
Wind_Speed
30 30 30 29 29 28 26 25 25 25 25 24 23 23 23 23 21 19 17 17 16 16 17 17 17 17 16 16 16 15 15 14 14 14 14 14 14 14 14 13 13 13 14 13 13 13 13 13 13
31 31 31 31 30 28 27 26 25 25 25 25 25 25 24 23 22 20 19 18 18 18 19 19 19 18 18 17 17 17 17 16 16 16 16 16 15 15 15 15 15 15 15 15 15 15 15 15 15
32 32 32 32 31 29 28 27 26 26 26 26 25 25 24 23 22 21 20 19 19 20 20 20 20 20 19 19 19 19 19 18 18 18 18 18 18 17 17 17 17 17 16 16 17 17 17 17 17
33 34 34 33 30 29 29 28 27 27 27 26 26 26 25 24 23 22 21 21 21 21 21 21 21 21 21 20 20 20 20 20 20 20 19 19 19 19 19 19 19 19 18 18 19 19 19 19 19
35 35 34 33 30 30 30 30 29 28 28 27 27 27 26 25 24 23 23 23 22 22 22 22 22 22 22 22 22 22 21 21 21 21 21 21 21 21 21 21 21 21 21 20 20 20 20 20 20
36 36 35 32 31 31 32 32 31 30 29 29 28 27 27 26 25 25 25 24 24 24 23 23 23 23 23 23 23 23 23 23 22 22 22 22 22 22 22 22 22 22 22 22 22 22 22 22 21
37 36 35 33 33 33 33 33 32 32 31 31 30 28 27 27 26 26 26 26 25 25 25 24 24 24 24 24 24 24 24 24 24 23 24 24 24 24 24 24 23 23 23 23 23 23 23 24 23
38 38 37 35 34 34 35 34 33 33 32 32 31 29 28 28 28 27 27 27 27 27 27 26 26 25 25 25 25 25 24 24 24 24 24 24 24 24 24 24 24 24 24 24 24 24 24 25 25
39 39 37 36 35 35 36 36 34 34 33 33 32 31 30 30 29 28 28 28 28 28 28 28 27 27 27 26 26 26 25 25 25 25 25 25 24 25 25 25 25 26 26 26 26 26 27 27 27
40 39 36 36 37 37 37 37 36 35 35 34 33 32 32 31 30 29 28 29 29 29 29 29 29 28 28 28 27 27 27 27 27 26 26 26 26 26 26 27 27 27 28 28 29 29 29 29 29
41 39 37 37 38 38 38 38 37 36 35 35 35 33 32 31 30 30 29 29 29 29 29 29 29 29 29 29 29 29 29 29 29 29 29 29 29 29 29 29 29 30 30 30 30 31 31 31 31
41 39 39 39 39 39 38 38 38 37 36 37 36 34 32 31 31 31 30 30 30 30 29 30 30 30 29 29 30 30 30 30 30 30 31 31 31 31 31 31 32 32 32 32 32 32 32 33 33
42 40 40 40 40 40 39 38 38 37 38 37 37 35 33 32 32 31 31 31 30 30 30 30 30 30 30 30 30 30 30 31 31 31 32 32 32 32 33 33 33 33 33 33 33 33 34 34 35
43 42 41 41 41 40 40 39 39 38 38 38 37 36 35 34 33 32 31 31 31 31 31 31 30 30 30 30 30 30 31 31 32 32 33 33 33 33 33 33 34 34 34 34 35 35 35 36 36
43 43 42 41 41 41 41 40 39 39 40 39 38 37 36 35 34 33 32 31 31 31 31 31 31 31 30 30 30 30 31 31 31 32 33 33 33 34 34 34 35 35 35 36 36 37 37 37 38
44 44 43 41 41 42 42 40 39 41 41 40 39 39 37 36 35 34 33 32 32 32 32 32 31 31 31 31 31 31 31 31 32 32 32 33 34 34 35 35 36 36 37 37 38 38 39 39 39
46 45 43 42 41 42 43 41 40 41 41 40 40 39 38 37 36 35 34 33 33 32 32 32 32 32 32 32 32 32 33 33 33 33 33 33 34 35 36 37 37 38 38 39 39 39 40 40 40
45 45 44 43 43 43 44 42 42 42 42 41 41 40 40 39 37 37 36 35 35 34 34 33 34 34 34 34 34 34 34 34 34 34 35 35 36 37 37 38 39 39 40 40 41 41 41 41 42
46 46 45 45 45 45 45 44 43 43 43 42 42 41 40 39 39 38 37 37 36 36 35 35 35 35 35 35 35 35 35 35 36 36 37 37 38 38 39 40 40 41 41 42 42 43 43 43 44
46 46 46 46 46 46 45 45 44 44 44 43 42 41 41 40 39 39 38 37 37 36 36 36 36 37 37 37 37 36 36 37 37 38 38 39 39 40 41 41 42 42 43 43 44 44 44 45 45
47 46 46 46 46 47 47 46 45 44 44 44 43 42 41 40 40 40 39 38 37 37 37 37 37 38 38 38 38 38 38 38 38 38 39 40 41 41 42 42 43 44 44 44 44 45 45 46 47
46 46 46 46 47 48 47 48 46 45 44 44 43 43 42 42 41 41 40 40 39 38 38 39 39 39 39 39 39 39 39 39 39 40 40 41 41 42 42 43 44 44 45 45 45 45 46 48 48
44 44 44 46 47 48 48 49 47 46 45 43 44 44 43 42 42 41 41 40 40 40 39 40 40 40 39 40 40 40 40 40 41 41 41 42 42 43 43 44 44 45 45 46 47 47 48 49 49
44 44 43 44 46 48 47 48 48 46 44 43 43 43 43 42 42 41 41 41 41 40 40 40 40 40 40 40 41 41 41 42 42 43 43 43 44 44 45 45 45 46 46 47 48 48 49 49 50
44 44 44 45 47 48 46 47 47 44 43 42 42 43 43 43 43 42 42 41 41 41 41 41 41 41 41 42 42 42 43 43 44 44 45 45 45 45 46 46 47 47 48 48 49 50 50 50 51
43 44 44 45 46 46 45 47 46 44 42 42 42 42 43 43 43 43 42 42 42 42 42 42 42 42 43 43 43 44 44 45 46 46 46 46 46 46 47 47 48 49 49 50 50 50 51 50 51
42 42 42 44 45 45 46 46 45 43 42 42 41 41 42 43 43 43 43 42 42 42 43 43 43 43 44 44 44 45 45 45 46 46 47 47 48 48 48 49 49 50 50 50 50 50 51 50 51
41 41 41 42 44 45 45 45 45 43 41 41 40 40 40 41 42 42 42 42 42 43 43 43 43 43 44 44 44 44 44 45 45 46 47 48 48 48 49 49 50 50 49 50 50 50 50 50 50
41 41 42 42 44 44 45 44 43 42 42 41 41 40 40 40 40 40 41 41 41 42 42 43 43 43 44 44 44 44 45 45 45 46 46 47 48 49 49 49 50 49 49 49 50 50 50 51 50
42 41 41 41 43 44 43 43 41 41 41 40 40 40 40 40 40 40 40 40 41 41 41 42 42 43 43 44 44 45 45 45 45 46 46 47 47 48 48 48 48 48 48 49 49 49 50 50 51

GEFSSGP_500_meanwind_234.txt.gz
Wind_Speed
32 31 32 32 32 31 28 26 24 24 24 24 24 23 21 21 20 19 18 17 16 16 15 14 14 13 13 13 12 12 11 11 11 10 9 9 10 10 10 10 10 10 11 11 11 11 12 12 12
34 34 34 34 34 31 28 26 25 25 26 26 25 24 23 23 21 20 19 18 18 17 16 15 15 15 14 14 14 14 13 13 13 12 12 11 12 12 12 12 12 12 12 12 13 13 13 13 14
36 36 36 36 34 31 29 27 27 27 27 27 26 25 25 24 23 21 20 19 19 18 18 17 17 16 16 15 15 15 15 15 15 14 14 14 14 14 14 14 14 14 14 14 14 15 15 15 16
37 38 38 37 34 32 30 29 29 28 28 27 27 26 25 25 24 23 22 21 21 20 19 18 18 18 17 17 17 16 16 16 16 16 15 15 16 16 16 16 16 16 16 16 16 17 17 17 17
39 40 39 38 35 33 32 31 30 30 29 28 27 26 26 25 25 24 23 23 22 21 21 20 19 19 19 19 19 18 18 18 17 17 17 17 17 17 17 18 18 18 18 18 18 18 18 18 18
40 41 41 38 35 34 34 33 32 31 31 30 28 27 26 26 26 25 24 24 23 23 22 22 21 20 20 20 20 20 19 19 19 19 19 19 19 19 19 19 19 19 19 19 20 20 19 19 20
41 41 41 39 37 36 35 35 34 33 32 32 30 29 28 27 27 26 26 26 25 25 24 23 23 22 22 22 21 21 21 20 20 20 20 20 20 20 20 20 21 21 21 21 21 21 21 21 21
42 42 42 40 38 36 36 36 35 35 34 33 32 31 29 29 29 28 28 27 27 26 26 25 25 24 24 23 23 22 22 22 22 21 21 21 22 22 22 22 22 22 23 23 23 23 23 23 23
44 44 42 40 38 37 37 37 37 36 36 35 34 32 31 31 30 30 30 29 29 28 28 27 26 26 26 25 25 24 24 24 23 23 23 23 23 23 23 23 23 23 23 24 24 24 25 25 25
45 45 41 39 39 39 39 39 38 38 37 36 35 34 33 33 32 31 31 31 30 30 29 28 28 27 27 26 26 25 25 25 25 25 24 24 24 24 24 24 24 24 24 24 25 25 26 26 27
45 44 41 40 40 41 41 40 40 39 39 38 37 36 35 34 33 33 32 32 32 31 30 29 29 28 27 27 26 26 26 26 26 25 26 26 26 25 25 25 26 26 26 27 27 27 28 28 29
45 43 42 41 42 42 42 42 42 41 39 39 38 38 37 36 35 34 34 33 33 32 31 30 30 29 28 28 27 27 26 26 26 26 26 27 27 27 27 27 28 28 29 29 29 30 30 30 31
46 44 43 43 44 43 43 43 43 42 41 40 39 38 37 36 36 36 35 34 33 33 32 31 30 30 29 29 28 28 28 27 27 28 28 28 28 28 29 29 30 30 30 31 31 31 32 32 32
46 45 45 44 44 44 44 44 43 42 42 42 41 39 39 38 37 37 36 35 34 34 33 33 32 31 30 30 30 29 29 29 29 29 29 29 29 29 30 30 31 31 32 32 33 33 33 33 34
47 47 46 45 44 44 45 45 43 42 43 42 41 41 40 39 38 38 37 37 36 36 35 34 33 32 31 31 31 30 30 29 29 30 30 30 30 30 31 31 32 32 33 33 34 34 35 35 35
48 49 47 45 45 45 46 45 42 43 43 43 43 42 41 40 39 39 38 38 37 37 36 35 35 33 33 32 32 31 31 30 30 30 30 30 30 31 32 32 32 33 33 34 35 35 35 36 36
51 50 48 47 47 46 46 45 43 43 44 43 43 43 42 41 40 39 39 38 38 38 37 36 36 35 34 33 33 32 32 32 31 31 31 31 31 32 32 33 33 34 34 35 35 36 36 37 38
50 49 48 47 47 47 47 45 43 44 44 44 43 43 42 40 40 40 39 39 39 39 38 37 37 37 36 35 34 34 33 33 33 32 32 32 33 33 34 34 35 35 35 36 36 37 38 38 39
49 49 49 48 48 48 48 46 45 44 44 44 44 43 41 40 41 41 40 40 40 39 39 38 38 38 37 37 36 36 35 35 34 34 34 34 35 35 35 35 36 36 37 37 38 38 39 39 40
49 50 50 50 49 49 49 48 46 46 45 45 44 43 42 41 41 41 41 40 40 40 39 39 39 38 38 38 38 38 37 37 37 37 37 37 37 37 37 37 37 38 38 38 39 40 40 41 41
48 48 48 49 49 50 50 50 48 47 46 45 45 44 43 42 42 42 42 41 41 40 40 40 40 40 40 39 39 39 39 39 39 39 39 39 39 39 39 39 39 39 40 40 40 41 41 42 42
48 47 47 48 49 50 50 50 49 48 47 46 45 44 44 43 43 43 42 42 41 41 41 41 41 41 41 41 40 40 40 40 40 40 40 40 40 40 40 40 40 40 41 41 41 42 42 43 43
47 46 46 47 49 50 51 51 49 48 47 45 45 45 44 44 43 43 43 42 42 42 42 42 42 42 42 41 41 41 41 41 41 40 41 41 41 41 41 41 42 42 42 42 42 43 44 44 44
46 46 46 47 48 51 50 51 50 48 47 46 46 45 45 44 44 43 43 43 43 43 44 43 43 42 42 41 42 41 41 41 41 41 41 42 42 42 42 43 43 44 44 44 44 44 44 44 45
46 46 46 47 49 50 49 51 50 48 48 47 47 46 46 45 45 44 43 44 44 44 44 43 43 43 42 42 42 42 42 42 42 42 42 43 43 43 43 44 45 45 45 45 46 45 45 45 46
44 45 45 46 47 47 47 49 49 48 47 47 47 46 46 46 45 45 44 44 44 44 44 44 44 43 43 43 43 43 43 43 44 44 44 44 44 44 44 45 46 46 46 46 46 46 46 47 47
43 43 43 43 46 46 46 46 46 46 45 45 46 46 46 46 45 45 44 44 45 45 45 45 45 45 44 44 45 44 44 45 45 45 44 44 45 45 46 46 47 47 47 46 46 46 47 47 48
42 41 42 43 44 46 46 45 44 43 42 43 43 44 45 45 46 45 45 44 45 45 45 45 45 45 45 45 45 46 45 46 46 45 46 46 46 47 47 47 47 47 47 47 47 47 47 47 47
41 41 42 42 43 44 45 44 42 42 41 41 41 42 42 43 44 44 45 44 45 45 45 45 45 45 46 46 46 46 46 46 46 46 46 47 47 48 47 48 47 47 47 47 47 47 47 47 47
40 40 40 41 41 42 42 43 41 40 40 40 40 41 41 41 42 43 44 44 44 45 45 45 45 46 46 46 46 46 46 46 46 47 47 48 48 47 47 47 47 47 47 47 47 47 47 48 48

GEFSSGP_500_meanwind_240.txt.gz
Wind_Speed
35 34 33 33 33 33 31 27 25 25 25 24 23 22 20 19 18 18 17 16 15 15 14 14 13 13 13 12 12 11 11 10 10 9 9 9 9 9 9 9 9 9 8 9 9 9 9 9 10
36 36 36 35 35 33 31 28 27 26 26 26 25 24 23 21 20 19 18 18 17 17 16 15 15 14 14 14 13 13 12 12 12 11 11 11 11 11 11 11 11 11 11 11 11 11 11 11 12
38 38 38 37 36 33 30 29 28 27 27 27 26 26 25 23 21 21 20 19 19 18 17 17 16 16 15 15 15 14 14 14 14 13 13 13 13 13 13 12 12 12 13 13 13 13 13 13 13
39 40 40 39 37 34 32 30 29 29 28 28 27 27 26 24 23 22 22 21 20 19 19 18 18 17 17 16 16 15 15 15 15 15 15 15 15 15 15 14 14 14 14 15 15 15 15 15 15
41 41 42 40 38 35 33 32 31 30 30 29 29 28 27 26 25 24 23 22 22 21 20 20 19 19 18 18 17 17 17 17 17 17 17 17 17 17 17 17 17 17 17 17 17 17 17 17 17
42 43 42 40 38 36 35 34 33 32 31 31 30 29 28 27 27 26 25 24 23 22 22 22 21 20 19 18 18 18 18 18 18 18 18 18 18 18 18 19 19 18 18 18 18 18 18 18 18
44 43 42 40 39 37 36 36 35 33 32 32 31 31 29 28 28 27 26 26 24 24 23 23 23 22 21 20 20 19 19 19 19 19 19 19 19 20 20 20 20 20 20 20 20 20 20 20 20
44 44 43 42 40 38 38 38 37 35 34 34 33 32 31 30 29 29 28 27 26 25 25 24 24 23 23 22 22 21 21 20 20 20 20 20 21 21 21 21 20 20 20 20 20 21 21 21 22
46 46 44 42 40 39 39 39 39 37 36 35 34 33 32 32 31 30 30 29 28 27 26 26 26 25 24 24 24 23 22 22 22 22 22 21 21 22 22 22 22 21 21 21 21 22 22 22 23
47 47 44 42 41 40 40 40 40 39 38 37 36 35 34 33 33 32 31 30 30 29 28 28 28 27 26 26 25 24 24 23 23 22 22 22 22 22 22 22 23 23 22 23 23 23 24 24 24
48 46 45 43 42 41 42 42 41 41 40 39 38 37 36 35 35 34 33 32 32 31 30 29 29 29 28 27 27 26 26 25 24 24 23 23 23 23 23 23 23 24 24 24 25 25 25 25 25
47 46 45 44 44 43 43 43 43 42 41 40 39 39 38 38 37 36 35 34 33 32 31 31 31 30 30 29 28 28 27 27 26 25 25 25 24 24 24 24 24 25 25 25 25 26 26 26 27
47 46 45 45 45 45 44 44 44 43 43 42 41 40 40 39 39 38 37 36 35 34 33 33 32 32 31 31 30 29 29 28 28 27 27 26 26 26 26 26 26 26 26 26 27 27 28 29 30
48 48 47 46 46 45 45 45 45 44 44 43 43 42 41 40 40 39 38 38 37 36 35 34 34 33 32 32 31 30 30 30 29 29 29 28 28 28 27 28 28 28 28 28 29 29 30 30 31
49 49 49 48 47 46 46 47 46 45 45 45 44 43 42 41 41 40 40 39 39 38 37 36 35 34 34 33 32 32 31 31 31 30 30 30 30 29 29 29 29 29 30 30 30 30 31 31 32
49 50 51 50 49 47 47 47 46 46 46 45 45 44 43 42 42 41 41 41 40 39 38 37 37 36 35 34 33 33 33 32 32 32 31 31 31 31 31 31 31 31 31 31 32 32 32 33 33
52 51 50 50 50 49 49 47 46 46 46 46 46 45 44 43 42 42 42 42 41 41 40 39 38 37 37 36 35 35 34 34 34 33 33 33 33 32 32 32 32 32 32 32 32 33 33 34 34
52 51 50 49 49 49 49 48 46 46 46 46 46 46 45 44 43 43 43 43 42 42 41 40 40 39 38 37 37 36 35 35 35 35 34 34 34 33 33 33 33 32 33 33 33 34 35 35 35
50 50 50 50 49 49 49 49 48 48 47 46 46 46 45 45 44 44 43 43 42 42 41 41 40 40 39 39 38 38 37 37 36 36 36 35 35 35 34 34 34 34 34 34 35 35 36 36 37
49 50 50 49 49 49 49 49 49 49 48 47 46 46 46 46 45 44 44 43 43 42 41 41 41 41 40 40 40 39 39 38 38 37 36 36 36 35 35 35 35 35 36 36 36 37 37 37 38
48 49 48 48 48 50 50 50 49 49 49 49 48 47 46 45 45 44 44 44 43 42 42 42 41 41 41 41 40 40 40 39 39 38 37 37 36 36 36 37 37 37 38 38 38 39 39 39 39
46 47 47 47 48 49 50 50 50 49 49 49 48 47 46 46 45 44 44 44 43 43 43 42 42 41 41 41 41 41 40 40 40 39 39 38 38 38 38 38 38 39 39 40 40 41 40 40 40
43 44 45 46 47 48 49 50 50 49 49 48 47 47 46 46 46 45 45 44 44 44 44 43 43 42 42 42 42 42 41 41 40 40 40 40 40 40 40 40 40 41 41 41 42 41 41 41 41
42 42 43 44 45 47 48 48 49 49 48 47 47 46 46 46 46 45 45 44 44 44 44 44 43 43 43 43 43 42 42 41 41 41 41 42 42 42 42 42 42 42 42 41 41 41 41 41 42
42 42 42 43 45 47 47 48 48 47 46 46 46 46 45 45 45 45 45 44 44 44 44 44 44 44 43 43 43 43 42 42 42 42 43 43 43 43 43 43 43 42 42 42 41 41 42 42 42
42 41 42 43 45 45 45 47 47 45 44 44 45 46 46 46 45 45 45 45 44 44 44 44 44 44 44 44 44 43 43 43 43 43 43 43 43 43 43 43 43 43 42 42 42 42 42 43 43
41 41 41 42 44 44 45 46 45 44 43 43 44 45 45 45 45 45 45 45 45 45 45 45 45 44 44 44 44 44 44 44 44 44 44 43 43 43 43 43 44 43 43 43 44 43 44 44 44
40 40 40 41 42 43 44 45 45 44 43 43 43 44 44 45 45 45 45 45 45 45 46 46 45 45 45 45 45 45 45 45 45 44 44 44 44 44 44 44 43 43 44 44 45 45 45 46 46
39 39 40 40 41 41 42 44 44 43 43 43 43 43 44 44 44 45 45 45 45 46 46 46 46 46 46 46 46 45 45 45 45 45 45 45 45 45 45 44 44 44 44 45 46 46 47 47 47
38 38 39 39 39 40 41 42 42 41 41 41 41 42 43 43 43 44 45 45 45 45 46 46 46 46 46 46 46 46 45 45 45 45 45 46 46 46 46 45 45 45 46 46 47 47 48 48 47